Wetterdaten: Donnerstag, 09.03.2023
Datum Zeit Temp. Aussen Temp. o. S. Temp +5cm Feuchte Auss Luftdruck Regen Sonnenschein Regendauer Solar Windben Empfang
09.03.2023 00:00 1,3 C 1,1 C -0,6 C 98 % 989,9 hPa 0,0 l/m 0 min 2 min 0 W/m 9,7 km/h (2 Bft) 100,00 %
09.03.2023 00:02 1,3 C 1,1 C -1,1 C 98 % 990,1 hPa 0,0 l/m 0 min 2 min 0 W/m 6,4 km/h (2 Bft) 97,06 %
09.03.2023 00:04 1,3 C 1,1 C -1,1 C 98 % 990,1 hPa 0,0 l/m 0 min 2 min 0 W/m 6,4 km/h (2 Bft) 97,87 %
09.03.2023 00:08 1,3 C 1,1 C -1,1 C 98 % 990,1 hPa 0,0 l/m 0 min 4 min 0 W/m 6,4 km/h (2 Bft) 98,00 %
09.03.2023 00:10 1,3 C 1,1 C -0,6 C 98 % 990,1 hPa 0,2 l/m 0 min 2 min 0 W/m 0,0 km/h (0 Bft) 100,00 %
09.03.2023 00:12 1,3 C 1,1 C -0,6 C 98 % 990,0 hPa 0,0 l/m 0 min 2 min 0 W/m 3,2 km/h (1 Bft) 100,00 %
09.03.2023 00:14 1,3 C 1,1 C -0,6 C 98 % 990,0 hPa 0,0 l/m 0 min 2 min 0 W/m 3,2 km/h (1 Bft) 100,00 %
09.03.2023 00:16 1,4 C 1,1 C -0,6 C 98 % 989,9 hPa 0,0 l/m 0 min 0 min 0 W/m 3,2 km/h (1 Bft) 100,00 %
09.03.2023 00:18 1,4 C 1,1 C -0,6 C 98 % 990,0 hPa 0,0 l/m 0 min 0 min 0 W/m 3,2 km/h (1 Bft) 100,00 %
09.03.2023 00:20 1,4 C 1,1 C -0,6 C 98 % 989,9 hPa 0,0 l/m 0 min 0 min 0 W/m 3,2 km/h (1 Bft) 97,83 %
09.03.2023 00:22 1,4 C 1,1 C -0,6 C 98 % 989,9 hPa 0,0 l/m 0 min 0 min 0 W/m 6,4 km/h (2 Bft) 95,74 %
09.03.2023 00:24 1,4 C 1,1 C -0,6 C 98 % 989,9 hPa 0,0 l/m 0 min 2 min 0 W/m 9,7 km/h (2 Bft) 100,00 %
09.03.2023 00:26 1,4 C 1,1 C -0,6 C 98 % 989,8 hPa 0,0 l/m 0 min 2 min 0 W/m 6,4 km/h (2 Bft) 100,00 %
09.03.2023 00:28 1,4 C 1,1 C -0,6 C 98 % 989,7 hPa 0,0 l/m 0 min 0 min 0 W/m 12,9 km/h (3 Bft) 100,00 %
09.03.2023 00:30 1,4 C 1,1 C -0,6 C 98 % 989,8 hPa 0,0 l/m 0 min 0 min 0 W/m 12,9 km/h (3 Bft) 100,00 %
09.03.2023 00:32 1,4 C 1,1 C -0,6 C 98 % 989,8 hPa 0,0 l/m 0 min 0 min 0 W/m 6,4 km/h (2 Bft) 97,87 %
09.03.2023 00:34 1,4 C 1,1 C -0,6 C 98 % 989,7 hPa 0,0 l/m 0 min 0 min 0 W/m 6,4 km/h (2 Bft) 100,00 %
09.03.2023 00:36 1,4 C 1,1 C -0,6 C 98 % 989,7 hPa 0,0 l/m 0 min 0 min 0 W/m 6,4 km/h (2 Bft) 100,00 %
09.03.2023 00:38 1,4 C 1,1 C -0,6 C 98 % 989,7 hPa 0,0 l/m 0 min 0 min 0 W/m 6,4 km/h (2 Bft) 97,87 %
09.03.2023 00:40 1,4 C 1,1 C -0,6 C 98 % 989,8 hPa 0,0 l/m 0 min 2 min 0 W/m 9,7 km/h (2 Bft) 93,62 %
09.03.2023 00:42 1,4 C 1,1 C -0,6 C 98 % 989,9 hPa 0,0 l/m 0 min 2 min 0 W/m 6,4 km/h (2 Bft) 97,87 %
09.03.2023 00:44 1,4 C 1,1 C -0,6 C 98 % 989,9 hPa 0,0 l/m 0 min 2 min 0 W/m 6,4 km/h (2 Bft) 97,92 %
09.03.2023 00:46 1,4 C 1,1 C -0,6 C 98 % 989,9 hPa 0,2 l/m 0 min 2 min 0 W/m 0,0 km/h (0 Bft) 95,65 %
09.03.2023 00:48 1,4 C 1,1 C -0,6 C 98 % 989,9 hPa 0,0 l/m 0 min 2 min 0 W/m 3,2 km/h (1 Bft) 97,87 %
09.03.2023 00:50 1,4 C 1,1 C -0,6 C 98 % 990,0 hPa 0,0 l/m 0 min 2 min 0 W/m 0,0 km/h (0 Bft) 93,62 %
09.03.2023 00:52 1,4 C 1,1 C -0,6 C 98 % 990,1 hPa 0,0 l/m 0 min 2 min 0 W/m 0,0 km/h (0 Bft) 91,49 %
09.03.2023 00:54 1,5 C 1,1 C -0,6 C 98 % 990,2 hPa 0,0 l/m 0 min 2 min 0 W/m 3,2 km/h (1 Bft) 95,83 %
09.03.2023 00:56 1,5 C 1,1 C -0,6 C 98 % 990,2 hPa 0,0 l/m 0 min 2 min 0 W/m 0,0 km/h (0 Bft) 91,49 %
09.03.2023 00:58 1,5 C 1,1 C -0,6 C 98 % 990,2 hPa 0,2 l/m 0 min 2 min 0 W/m 6,4 km/h (2 Bft) 94,44 %
09.03.2023 01:00 1,5 C 1,1 C -0,6 C 98 % 990,2 hPa 0,0 l/m 0 min 2 min 0 W/m 6,4 km/h (2 Bft) 93,62 %
09.03.2023 01:02 1,5 C 1,1 C -0,6 C 98 % 990,2 hPa 0,0 l/m 0 min 2 min 0 W/m 0,0 km/h (0 Bft) 93,48 %
09.03.2023 01:04 1,6 C 1,1 C -0,6 C 98 % 990,3 hPa 0,0 l/m 0 min 2 min 0 W/m 3,2 km/h (1 Bft) 91,67 %
09.03.2023 01:06 1,6 C 1,1 C -0,6 C 98 % 990,2 hPa 0,0 l/m 0 min 2 min 0 W/m 3,2 km/h (1 Bft) 93,22 %
09.03.2023 01:08 1,6 C 1,1 C -0,6 C 98 % 990,2 hPa 0,0 l/m 0 min 2 min 0 W/m 3,2 km/h (1 Bft) 94,29 %
09.03.2023 01:10 1,6 C 1,1 C -0,6 C 98 % 990,2 hPa 0,2 l/m 0 min 2 min 0 W/m 0,0 km/h (0 Bft) 93,62 %
09.03.2023 01:12 1,6 C 1,1 C -0,6 C 98 % 990,2 hPa 0,0 l/m 0 min 2 min 0 W/m 0,0 km/h (0 Bft) 91,49 %
09.03.2023 01:14 1,6 C 1,1 C -0,6 C 98 % 990,2 hPa 0,0 l/m 0 min 0 min 0 W/m 3,2 km/h (1 Bft) 93,62 %
09.03.2023 01:16 1,6 C 1,1 C -0,6 C 98 % 990,1 hPa 0,0 l/m 0 min 0 min 0 W/m 6,4 km/h (2 Bft) 93,62 %
09.03.2023 01:18 1,6 C 1,1 C -0,6 C 98 % 990,1 hPa 0,0 l/m 0 min 2 min 0 W/m 6,4 km/h (2 Bft) 93,62 %
09.03.2023 01:20 1,6 C 1,1 C -0,6 C 98 % 990,1 hPa 0,0 l/m 0 min 0 min 0 W/m 6,4 km/h (2 Bft) 93,62 %
09.03.2023 01:22 1,6 C 1,1 C -0,6 C 98 % 990,1 hPa 0,0 l/m 0 min 2 min 0 W/m 6,4 km/h (2 Bft) 95,74 %
09.03.2023 01:24 1,6 C 1,1 C -0,6 C 98 % 990,1 hPa 0,0 l/m 0 min 0 min 0 W/m 9,7 km/h (2 Bft) 95,74 %
09.03.2023 01:26 1,6 C 1,1 C -0,6 C 98 % 990,2 hPa 0,0 l/m 0 min 0 min 0 W/m 12,9 km/h (3 Bft) 92,45 %
09.03.2023 01:28 1,6 C 1,1 C -0,6 C 98 % 990,2 hPa 0,0 l/m 0 min 0 min 0 W/m 6,4 km/h (2 Bft) 97,37 %
09.03.2023 01:30 1,6 C 1,1 C -0,6 C 98 % 990,2 hPa 0,0 l/m 0 min 0 min 0 W/m 3,2 km/h (1 Bft) 93,62 %
09.03.2023 01:32 1,6 C 1,1 C -0,6 C 98 % 990,2 hPa 0,0 l/m 0 min 0 min 0 W/m 0,0 km/h (0 Bft) 94,64 %
09.03.2023 01:34 1,6 C 1,1 C -0,6 C 98 % 990,2 hPa 0,0 l/m 0 min 0 min 0 W/m 6,4 km/h (2 Bft) 97,87 %
09.03.2023 01:36 1,6 C 1,1 C -0,6 C 98 % 990,2 hPa 0,0 l/m 0 min 0 min 0 W/m 6,4 km/h (2 Bft) 97,30 %
09.03.2023 01:38 1,6 C 1,1 C -0,6 C 98 % 990,1 hPa 0,0 l/m 0 min 0 min 0 W/m 6,4 km/h (2 Bft) 100,00 %
09.03.2023 01:40 1,6 C 1,1 C -0,6 C 98 % 990,1 hPa 0,0 l/m 0 min 0 min 0 W/m 9,7 km/h (2 Bft) 97,87 %
09.03.2023 01:42 1,6 C 1,1 C -0,6 C 98 % 990,1 hPa 0,0 l/m 0 min 0 min 0 W/m 3,2 km/h (1 Bft) 97,96 %
09.03.2023 01:44 1,6 C 1,1 C -0,6 C 98 % 990,2 hPa 0,0 l/m 0 min 0 min 0 W/m 6,4 km/h (2 Bft) 100,00 %
09.03.2023 01:46 1,6 C 1,1 C -0,6 C 98 % 990,3 hPa 0,0 l/m 0 min 0 min 0 W/m 6,4 km/h (2 Bft) 97,87 %
09.03.2023 01:48 1,6 C 1,1 C -0,6 C 98 % 990,3 hPa 0,0 l/m 0 min 0 min 0 W/m 6,4 km/h (2 Bft) 100,00 %
09.03.2023 01:50 1,6 C 1,1 C -0,6 C 98 % 990,3 hPa 0,0 l/m 0 min 0 min 0 W/m 6,4 km/h (2 Bft) 100,00 %
09.03.2023 01:52 1,6 C 1,1 C -0,6 C 98 % 990,3 hPa 0,0 l/m 0 min 0 min 0 W/m 6,4 km/h (2 Bft) 100,00 %
09.03.2023 01:54 1,6 C 1,1 C -0,6 C 98 % 990,3 hPa 0,0 l/m 0 min 0 min 0 W/m 6,4 km/h (2 Bft) 100,00 %
09.03.2023 01:56 1,6 C 1,1 C -0,6 C 98 % 990,3 hPa 0,0 l/m 0 min 0 min 0 W/m 3,2 km/h (1 Bft) 100,00 %
09.03.2023 01:58 1,6 C 1,1 C -0,6 C 98 % 990,3 hPa 0,0 l/m 0 min 0 min 0 W/m 6,4 km/h (2 Bft) 100,00 %
09.03.2023 02:00 1,6 C 1,1 C -0,6 C 98 % 990,3 hPa 0,0 l/m 0 min 0 min 0 W/m 6,4 km/h (2 Bft) 100,00 %
09.03.2023 02:02 1,6 C 1,1 C -0,6 C 98 % 990,4 hPa 0,0 l/m 0 min 0 min 0 W/m 3,2 km/h (1 Bft) 100,00 %
09.03.2023 02:04 1,6 C 1,1 C -0,6 C 98 % 990,5 hPa 0,0 l/m 0 min 0 min 0 W/m 3,2 km/h (1 Bft) 100,00 %
09.03.2023 02:06 1,6 C 1,1 C -0,6 C 98 % 990,5 hPa 0,0 l/m 0 min 0 min 0 W/m 6,4 km/h (2 Bft) 100,00 %
09.03.2023 02:08 1,6 C 1,1 C -0,6 C 98 % 990,4 hPa 0,0 l/m 0 min 0 min 0 W/m 6,4 km/h (2 Bft) 100,00 %
09.03.2023 02:10 1,6 C 1,1 C -0,6 C 98 % 990,3 hPa 0,0 l/m 0 min 0 min 0 W/m 3,2 km/h (1 Bft) 97,87 %
09.03.2023 02:14 1,6 C 1,1 C -0,6 C 98 % 990,3 hPa 0,0 l/m 0 min 0 min 0 W/m 6,4 km/h (2 Bft) 100,00 %
09.03.2023 02:16 1,6 C 1,1 C -0,6 C 98 % 990,3 hPa 0,0 l/m 0 min 0 min 0 W/m 9,7 km/h (2 Bft) 91,49 %
09.03.2023 02:18 1,6 C 1,1 C -0,6 C 98 % 990,4 hPa 0,0 l/m 0 min 0 min 0 W/m 3,2 km/h (1 Bft) 97,30 %
09.03.2023 02:20 1,6 C 1,1 C -0,6 C 98 % 990,4 hPa 0,0 l/m 0 min 0 min 0 W/m 3,2 km/h (1 Bft) 97,87 %
09.03.2023 02:22 1,5 C 1,1 C -0,6 C 98 % 990,6 hPa 0,0 l/m 0 min 0 min 0 W/m 3,2 km/h (1 Bft) 100,00 %
09.03.2023 02:24 1,5 C 1,1 C -0,6 C 98 % 990,7 hPa 0,0 l/m 0 min 0 min 0 W/m 9,7 km/h (2 Bft) 100,00 %
09.03.2023 02:26 1,5 C 1,1 C -0,6 C 98 % 990,7 hPa 0,0 l/m 0 min 0 min 0 W/m 6,4 km/h (2 Bft) 100,00 %
09.03.2023 02:28 1,5 C 1,1 C -0,6 C 98 % 990,7 hPa 0,0 l/m 0 min 0 min 0 W/m 3,2 km/h (1 Bft) 100,00 %
09.03.2023 02:30 1,5 C 1,1 C -0,6 C 98 % 990,7 hPa 0,0 l/m 0 min 0 min 0 W/m 6,4 km/h (2 Bft) 95,74 %
09.03.2023 02:32 1,5 C 1,1 C -0,6 C 98 % 990,8 hPa 0,0 l/m 0 min 0 min 0 W/m 6,4 km/h (2 Bft) 97,87 %
09.03.2023 02:34 1,5 C 1,1 C -0,6 C 98 % 990,8 hPa 0,0 l/m 0 min 0 min 0 W/m 6,4 km/h (2 Bft) 100,00 %
09.03.2023 02:36 1,5 C 1,1 C -0,6 C 98 % 990,9 hPa 0,0 l/m 0 min 0 min 0 W/m 9,7 km/h (2 Bft) 100,00 %
09.03.2023 02:38 1,5 C 1,1 C -0,6 C 98 % 991,0 hPa 0,0 l/m 0 min 0 min 0 W/m 9,7 km/h (2 Bft) 97,92 %
09.03.2023 02:40 1,5 C 1,1 C -0,6 C 98 % 990,9 hPa 0,0 l/m 0 min 0 min 0 W/m 6,4 km/h (2 Bft) 95,74 %
09.03.2023 02:42 1,5 C 1,1 C -0,6 C 98 % 990,7 hPa 0,0 l/m 0 min 0 min 0 W/m 6,4 km/h (2 Bft) 97,83 %
09.03.2023 02:44 1,5 C 1,1 C -0,6 C 98 % 990,7 hPa 0,0 l/m 0 min 0 min 0 W/m 6,4 km/h (2 Bft) 97,87 %
09.03.2023 02:46 1,5 C 1,1 C -0,6 C 98 % 990,9 hPa 0,0 l/m 0 min 0 min 0 W/m 6,4 km/h (2 Bft) 95,74 %
09.03.2023 02:48 1,5 C 1,1 C -0,6 C 98 % 991,0 hPa 0,0 l/m 0 min 0 min 0 W/m 3,2 km/h (1 Bft) 97,87 %
09.03.2023 02:50 1,4 C 1,1 C -0,6 C 98 % 991,0 hPa 0,0 l/m 0 min 0 min 0 W/m 9,7 km/h (2 Bft) 97,87 %
09.03.2023 02:52 1,5 C 1,1 C -0,6 C 98 % 991,1 hPa 0,0 l/m 0 min 0 min 0 W/m 9,7 km/h (2 Bft) 97,87 %
09.03.2023 02:54 1,5 C 1,1 C -0,6 C 98 % 991,2 hPa 0,0 l/m 0 min 0 min 0 W/m 6,4 km/h (2 Bft) 97,83 %
09.03.2023 02:56 1,5 C 1,1 C -0,6 C 98 % 991,2 hPa 0,0 l/m 0 min 0 min 0 W/m 6,4 km/h (2 Bft) 95,74 %
09.03.2023 02:58 1,5 C 1,1 C -0,6 C 98 % 991,3 hPa 0,0 l/m 0 min 0 min 0 W/m 6,4 km/h (2 Bft) 97,87 %
09.03.2023 03:00 1,5 C 1,1 C -0,6 C 98 % 991,3 hPa 0,0 l/m 0 min 0 min 0 W/m 9,7 km/h (2 Bft) 97,87 %
09.03.2023 03:02 1,4 C 1,1 C -0,6 C 98 % 991,3 hPa 0,0 l/m 0 min 0 min 0 W/m 3,2 km/h (1 Bft) 97,87 %
09.03.2023 03:04 1,5 C 1,1 C -0,6 C 98 % 991,4 hPa 0,0 l/m 0 min 0 min 0 W/m 3,2 km/h (1 Bft) 97,87 %
09.03.2023 03:06 1,5 C 1,1 C -0,6 C 98 % 991,4 hPa 0,0 l/m 0 min 0 min 0 W/m 6,4 km/h (2 Bft) 97,87 %
09.03.2023 03:08 1,5 C 1,1 C -0,6 C 98 % 991,4 hPa 0,0 l/m 0 min 0 min 0 W/m 6,4 km/h (2 Bft) 95,65 %
09.03.2023 03:10 1,4 C 1,1 C -0,6 C 98 % 991,4 hPa 0,0 l/m 0 min 0 min 0 W/m 6,4 km/h (2 Bft) 100,00 %
09.03.2023 03:17 1,5 C 1,1 C -0,6 C 98 % 991,5 hPa 0,2 l/m 0 min 0 min 0 W/m 9,7 km/h (2 Bft) 100,00 %
09.03.2023 03:18 1,5 C 1,1 C -0,6 C 98 % 991,5 hPa 0,0 l/m 0 min 0 min 0 W/m 6,4 km/h (2 Bft) 100,00 %
09.03.2023 03:20 1,5 C 1,1 C -0,6 C 98 % 991,6 hPa 0,0 l/m 0 min 0 min 0 W/m 9,7 km/h (2 Bft) 97,87 %
09.03.2023 03:22 1,5 C 1,1 C -0,6 C 98 % 991,7 hPa 0,0 l/m 0 min 0 min 0 W/m 6,4 km/h (2 Bft) 97,87 %
09.03.2023 03:24 1,5 C 1,1 C -0,6 C 98 % 991,7 hPa 0,0 l/m 0 min 0 min 0 W/m 3,2 km/h (1 Bft) 95,74 %
09.03.2023 03:26 1,5 C 1,1 C -0,6 C 99 % 991,7 hPa 0,0 l/m 0 min 0 min 0 W/m 0,0 km/h (0 Bft) 97,87 %
09.03.2023 03:28 1,5 C 1,1 C -0,6 C 99 % 991,7 hPa 0,0 l/m 0 min 0 min 0 W/m 6,4 km/h (2 Bft) 97,83 %
09.03.2023 03:30 1,5 C 1,1 C -0,6 C 99 % 991,8 hPa 0,0 l/m 0 min 0 min 0 W/m 12,9 km/h (3 Bft) 97,87 %
09.03.2023 03:32 1,5 C 1,1 C -0,6 C 99 % 991,9 hPa 0,0 l/m 0 min 0 min 0 W/m 6,4 km/h (2 Bft) 97,87 %
09.03.2023 03:34 1,5 C 1,1 C -0,6 C 99 % 991,9 hPa 0,0 l/m 0 min 0 min 0 W/m 3,2 km/h (1 Bft) 97,87 %
09.03.2023 03:36 1,5 C 1,1 C -0,6 C 99 % 992,0 hPa 0,0 l/m 0 min 0 min 0 W/m 6,4 km/h (2 Bft) 97,92 %
09.03.2023 03:38 1,4 C 1,1 C -0,6 C 99 % 992,0 hPa 0,0 l/m 0 min 0 min 0 W/m 6,4 km/h (2 Bft) 94,44 %
09.03.2023 03:40 1,5 C 1,1 C -0,6 C 99 % 992,1 hPa 0,0 l/m 0 min 0 min 0 W/m 3,2 km/h (1 Bft) 95,65 %
09.03.2023 03:42 1,5 C 1,1 C -0,6 C 99 % 992,1 hPa 0,0 l/m 0 min 0 min 0 W/m 0,0 km/h (0 Bft) 97,87 %
09.03.2023 03:44 1,5 C 1,1 C -0,6 C 99 % 992,1 hPa 0,0 l/m 0 min 0 min 0 W/m 0,0 km/h (0 Bft) 97,87 %
09.03.2023 03:46 1,5 C 1,1 C -0,6 C 99 % 992,1 hPa 0,0 l/m 0 min 2 min 0 W/m 0,0 km/h (0 Bft) 98,00 %
09.03.2023 03:48 1,5 C 1,1 C -0,6 C 99 % 992,2 hPa 0,0 l/m 0 min 2 min 0 W/m 3,2 km/h (1 Bft) 98,11 %
09.03.2023 03:50 1,5 C 1,1 C -0,6 C 99 % 992,1 hPa 0,0 l/m 0 min 0 min 0 W/m 3,2 km/h (1 Bft) 97,87 %
09.03.2023 03:52 1,5 C 1,1 C -0,6 C 99 % 992,1 hPa 0,0 l/m 0 min 0 min 0 W/m 0,0 km/h (0 Bft) 93,62 %
09.03.2023 03:54 1,5 C 1,1 C -0,6 C 99 % 992,1 hPa 0,0 l/m 0 min 0 min 0 W/m 0,0 km/h (0 Bft) 95,74 %
09.03.2023 03:56 1,5 C 1,1 C -0,6 C 99 % 992,1 hPa 0,0 l/m 0 min 0 min 0 W/m 0,0 km/h (0 Bft) 95,65 %
09.03.2023 03:58 1,5 C 1,1 C -0,6 C 99 % 992,2 hPa 0,0 l/m 0 min 0 min 0 W/m 0,0 km/h (0 Bft) 95,74 %
09.03.2023 04:00 1,5 C 1,1 C -0,6 C 99 % 992,2 hPa 0,0 l/m 0 min 0 min 0 W/m 3,2 km/h (1 Bft) 95,74 %
09.03.2023 04:02 1,5 C 1,1 C -0,6 C 99 % 992,4 hPa 0,0 l/m 0 min 0 min 0 W/m 3,2 km/h (1 Bft) 95,74 %
09.03.2023 04:04 1,5 C 1,1 C -0,6 C 99 % 992,3 hPa 0,0 l/m 0 min 0 min 0 W/m 0,0 km/h (0 Bft) 95,74 %
09.03.2023 04:06 1,5 C 1,1 C -0,6 C 99 % 992,3 hPa 0,0 l/m 0 min 0 min 0 W/m 0,0 km/h (0 Bft) 98,28 %
09.03.2023 04:08 1,5 C 1,1 C -0,6 C 99 % 992,3 hPa 0,0 l/m 0 min 0 min 0 W/m 0,0 km/h (0 Bft) 97,22 %
09.03.2023 04:10 1,5 C 1,1 C -0,6 C 99 % 992,3 hPa 0,0 l/m 0 min 0 min 0 W/m 0,0 km/h (0 Bft) 97,87 %
09.03.2023 04:12 1,5 C 1,1 C -0,6 C 99 % 992,3 hPa 0,0 l/m 0 min 0 min 0 W/m 0,0 km/h (0 Bft) 93,62 %
09.03.2023 04:14 1,5 C 1,1 C -0,6 C 99 % 992,3 hPa 0,0 l/m 0 min 0 min 0 W/m 0,0 km/h (0 Bft) 97,87 %
09.03.2023 04:16 1,5 C 1,1 C -0,6 C 99 % 992,4 hPa 0,0 l/m 0 min 0 min 0 W/m 0,0 km/h (0 Bft) 97,87 %
09.03.2023 04:18 1,4 C 1,1 C -0,6 C 99 % 992,4 hPa 0,0 l/m 0 min 0 min 0 W/m 0,0 km/h (0 Bft) 97,87 %
09.03.2023 04:20 1,4 C 1,1 C -0,6 C 99 % 992,5 hPa 0,0 l/m 0 min 0 min 0 W/m 0,0 km/h (0 Bft) 97,92 %
09.03.2023 04:22 1,4 C 1,1 C -0,6 C 99 % 992,5 hPa 0,0 l/m 0 min 0 min 0 W/m 0,0 km/h (0 Bft) 93,75 %
09.03.2023 04:24 1,4 C 1,1 C -0,6 C 99 % 992,5 hPa 0,0 l/m 0 min 0 min 0 W/m 0,0 km/h (0 Bft) 95,74 %
09.03.2023 04:26 1,4 C 1,1 C -0,6 C 99 % 992,5 hPa 0,0 l/m 0 min 0 min 0 W/m 0,0 km/h (0 Bft) 97,87 %
09.03.2023 04:28 1,4 C 1,1 C -0,6 C 99 % 992,5 hPa 0,0 l/m 0 min 0 min 0 W/m 0,0 km/h (0 Bft) 97,87 %
09.03.2023 04:30 1,4 C 1,1 C -0,6 C 99 % 992,6 hPa 0,0 l/m 0 min 0 min 0 W/m 0,0 km/h (0 Bft) 95,92 %
09.03.2023 04:32 1,4 C 1,1 C -0,6 C 99 % 992,7 hPa 0,0 l/m 0 min 0 min 0 W/m 0,0 km/h (0 Bft) 95,65 %
09.03.2023 04:34 1,4 C 1,1 C -0,6 C 99 % 992,8 hPa 0,0 l/m 0 min 0 min 0 W/m 0,0 km/h (0 Bft) 97,87 %
09.03.2023 04:36 1,4 C 1,1 C -0,6 C 99 % 992,8 hPa 0,0 l/m 0 min 0 min 0 W/m 0,0 km/h (0 Bft) 91,49 %
09.03.2023 04:38 1,4 C 1,1 C -0,6 C 99 % 992,8 hPa 0,0 l/m 0 min 0 min 0 W/m 0,0 km/h (0 Bft) 93,62 %
09.03.2023 04:40 1,4 C 1,1 C -0,6 C 99 % 992,8 hPa 0,0 l/m 0 min 0 min 0 W/m 0,0 km/h (0 Bft) 94,87 %
09.03.2023 04:42 1,4 C 1,1 C -0,6 C 99 % 992,8 hPa 0,0 l/m 0 min 0 min 0 W/m 0,0 km/h (0 Bft) 97,87 %
09.03.2023 04:44 1,4 C 1,1 C -0,6 C 98 % 992,9 hPa 0,0 l/m 0 min 0 min 0 W/m 0,0 km/h (0 Bft) 93,62 %
09.03.2023 04:46 1,4 C 1,1 C -0,6 C 98 % 992,9 hPa 0,0 l/m 0 min 0 min 0 W/m 0,0 km/h (0 Bft) 95,65 %
09.03.2023 04:48 1,4 C 1,1 C -0,6 C 98 % 992,9 hPa 0,0 l/m 0 min 0 min 0 W/m 0,0 km/h (0 Bft) 97,87 %
09.03.2023 04:50 1,4 C 1,1 C -0,6 C 99 % 992,9 hPa 0,0 l/m 0 min 0 min 0 W/m 6,4 km/h (2 Bft) 95,74 %
09.03.2023 04:52 1,4 C 1,1 C -0,6 C 98 % 993,0 hPa 0,0 l/m 0 min 0 min 0 W/m 3,2 km/h (1 Bft) 93,62 %
09.03.2023 04:54 1,4 C 1,1 C -0,6 C 98 % 993,1 hPa 0,0 l/m 0 min 0 min 0 W/m 3,2 km/h (1 Bft) 93,62 %
09.03.2023 04:56 1,4 C 1,1 C -0,6 C 98 % 993,1 hPa 0,0 l/m 0 min 0 min 0 W/m 0,0 km/h (0 Bft) 97,87 %
09.03.2023 04:58 1,4 C 1,1 C -0,6 C 98 % 993,2 hPa 0,0 l/m 0 min 0 min 0 W/m 3,2 km/h (1 Bft) 97,87 %
09.03.2023 05:00 1,4 C 1,1 C -0,6 C 98 % 993,2 hPa 0,0 l/m 0 min 0 min 0 W/m 3,2 km/h (1 Bft) 100,00 %
09.03.2023 05:02 1,4 C 1,1 C -0,6 C 98 % 993,1 hPa 0,0 l/m 0 min 0 min 0 W/m 6,4 km/h (2 Bft) 97,92 %
09.03.2023 05:04 1,4 C 0,6 C -0,6 C 98 % 993,1 hPa 0,0 l/m 0 min 0 min 0 W/m 3,2 km/h (1 Bft) 97,87 %
09.03.2023 05:06 1,4 C 0,6 C -0,6 C 98 % 993,0 hPa 0,0 l/m 0 min 0 min 0 W/m 0,0 km/h (0 Bft) 98,28 %
09.03.2023 05:08 1,4 C 0,6 C -0,6 C 98 % 993,0 hPa 0,0 l/m 0 min 0 min 0 W/m 0,0 km/h (0 Bft) 97,14 %
09.03.2023 05:10 1,4 C 0,6 C -0,6 C 98 % 993,0 hPa 0,0 l/m 0 min 0 min 0 W/m 0,0 km/h (0 Bft) 100,00 %
09.03.2023 05:12 1,4 C 0,6 C -0,6 C 98 % 993,1 hPa 0,0 l/m 0 min 0 min 0 W/m 0,0 km/h (0 Bft) 100,00 %
09.03.2023 05:14 1,4 C 0,6 C -0,6 C 98 % 993,2 hPa 0,0 l/m 0 min 0 min 0 W/m 3,2 km/h (1 Bft) 100,00 %
09.03.2023 05:16 1,4 C 0,6 C -0,6 C 98 % 993,3 hPa 0,0 l/m 0 min 0 min 0 W/m 3,2 km/h (1 Bft) 100,00 %
09.03.2023 05:18 1,4 C 0,6 C -0,6 C 98 % 993,3 hPa 0,0 l/m 0 min 0 min 0 W/m 3,2 km/h (1 Bft) 100,00 %
09.03.2023 05:20 1,4 C 0,6 C -0,6 C 98 % 993,3 hPa 0,0 l/m 0 min 0 min 0 W/m 3,2 km/h (1 Bft) 100,00 %
09.03.2023 05:22 1,4 C 0,6 C -0,6 C 98 % 993,5 hPa 0,0 l/m 0 min 0 min 0 W/m 3,2 km/h (1 Bft) 97,87 %
09.03.2023 05:24 1,4 C 0,6 C -0,6 C 98 % 993,5 hPa 0,0 l/m 0 min 0 min 0 W/m 0,0 km/h (0 Bft) 100,00 %
09.03.2023 05:26 1,3 C 0,6 C -0,6 C 98 % 993,5 hPa 0,0 l/m 0 min 0 min 0 W/m 0,0 km/h (0 Bft) 100,00 %
09.03.2023 05:28 1,3 C 1,1 C -0,6 C 98 % 993,6 hPa 0,0 l/m 0 min 0 min 0 W/m 0,0 km/h (0 Bft) 100,00 %
09.03.2023 05:30 1,3 C 1,1 C -0,6 C 98 % 993,6 hPa 0,0 l/m 0 min 0 min 0 W/m 0,0 km/h (0 Bft) 100,00 %
09.03.2023 05:32 1,3 C 1,1 C -0,6 C 98 % 993,6 hPa 0,0 l/m 0 min 2 min 0 W/m 0,0 km/h (0 Bft) 100,00 %
09.03.2023 05:34 1,3 C 1,1 C -0,6 C 98 % 993,6 hPa 0,0 l/m 0 min 0 min 0 W/m 0,0 km/h (0 Bft) 97,87 %
09.03.2023 05:36 1,3 C 1,1 C -0,6 C 98 % 993,7 hPa 0,0 l/m 0 min 2 min 0 W/m 0,0 km/h (0 Bft) 100,00 %
09.03.2023 05:38 1,4 C 1,1 C -0,6 C 98 % 993,7 hPa 0,0 l/m 0 min 0 min 0 W/m 0,0 km/h (0 Bft) 97,87 %
09.03.2023 05:40 1,4 C 1,1 C -0,6 C 98 % 993,7 hPa 0,0 l/m 0 min 0 min 0 W/m 0,0 km/h (0 Bft) 100,00 %
09.03.2023 05:42 1,4 C 1,1 C -0,6 C 98 % 993,8 hPa 0,0 l/m 0 min 0 min 0 W/m 0,0 km/h (0 Bft) 100,00 %
09.03.2023 05:44 1,4 C 1,1 C -0,6 C 98 % 993,7 hPa 0,0 l/m 0 min 0 min 0 W/m 0,0 km/h (0 Bft) 95,74 %
09.03.2023 05:46 1,4 C 1,1 C -0,6 C 98 % 993,6 hPa 0,0 l/m 0 min 2 min 0 W/m 0,0 km/h (0 Bft) 97,92 %
09.03.2023 05:48 1,4 C 1,1 C -0,6 C 98 % 993,6 hPa 0,0 l/m 0 min 2 min 0 W/m 0,0 km/h (0 Bft) 97,87 %
09.03.2023 05:50 1,4 C 0,6 C -0,6 C 98 % 993,6 hPa 0,2 l/m 0 min 2 min 0 W/m 0,0 km/h (0 Bft) 95,74 %
09.03.2023 05:52 1,4 C 1,1 C -0,6 C 98 % 993,7 hPa 0,0 l/m 0 min 2 min 0 W/m 0,0 km/h (0 Bft) 95,65 %
09.03.2023 05:54 1,4 C 1,1 C -0,6 C 98 % 993,7 hPa 0,0 l/m 0 min 2 min 0 W/m 0,0 km/h (0 Bft) 97,87 %
09.03.2023 05:56 1,4 C 1,1 C -0,6 C 98 % 993,8 hPa 0,0 l/m 0 min 2 min 0 W/m 0,0 km/h (0 Bft) 97,87 %
09.03.2023 05:58 1,4 C 1,1 C -0,6 C 98 % 993,8 hPa 0,0 l/m 0 min 2 min 0 W/m 3,2 km/h (1 Bft) 97,87 %
09.03.2023 06:00 1,4 C 1,1 C -0,6 C 98 % 993,8 hPa 0,0 l/m 0 min 2 min 0 W/m 3,2 km/h (1 Bft) 97,87 %
09.03.2023 06:02 1,4 C 1,1 C -0,6 C 98 % 993,9 hPa 0,2 l/m 0 min 2 min 0 W/m 0,0 km/h (0 Bft) 95,83 %
09.03.2023 06:04 1,4 C 1,1 C -0,6 C 98 % 993,9 hPa 0,0 l/m 0 min 0 min 0 W/m 0,0 km/h (0 Bft) 97,87 %
09.03.2023 06:07 1,4 C 1,1 C -0,6 C 98 % 994,0 hPa 0,0 l/m 0 min 3 min 0 W/m 0,0 km/h (0 Bft) 98,57 %
09.03.2023 06:08 1,4 C 1,1 C -0,6 C 98 % 994,0 hPa 0,0 l/m 0 min 1 min 0 W/m 0,0 km/h (0 Bft) 95,83 %
09.03.2023 06:12 1,4 C 1,1 C -0,6 C 98 % 994,0 hPa 0,0 l/m 0 min 4 min 0 W/m 0,0 km/h (0 Bft) 94,74 %
09.03.2023 06:14 1,4 C 1,1 C -0,6 C 98 % 994,0 hPa 0,0 l/m 0 min 2 min 0 W/m 0,0 km/h (0 Bft) 94,44 %
09.03.2023 06:16 1,4 C 1,1 C -0,6 C 99 % 994,0 hPa 0,0 l/m 0 min 2 min 0 W/m 0,0 km/h (0 Bft) 97,87 %
09.03.2023 06:18 1,4 C 1,1 C -0,6 C 99 % 994,1 hPa 0,0 l/m 0 min 2 min 0 W/m 0,0 km/h (0 Bft) 97,87 %
09.03.2023 06:20 1,4 C 1,1 C -0,6 C 99 % 994,2 hPa 0,0 l/m 0 min 2 min 0 W/m 0,0 km/h (0 Bft) 97,87 %
09.03.2023 06:22 1,4 C 1,1 C -0,6 C 99 % 994,2 hPa 0,0 l/m 0 min 2 min 0 W/m 0,0 km/h (0 Bft) 97,87 %
09.03.2023 06:24 1,4 C 1,1 C -0,6 C 99 % 994,2 hPa 0,0 l/m 0 min 2 min 0 W/m 0,0 km/h (0 Bft) 97,83 %
09.03.2023 06:26 1,4 C 1,1 C -0,6 C 99 % 994,1 hPa 0,0 l/m 0 min 2 min 0 W/m 0,0 km/h (0 Bft) 93,62 %
09.03.2023 06:28 1,4 C 1,1 C -0,6 C 99 % 994,1 hPa 0,0 l/m 0 min 2 min 0 W/m 0,0 km/h (0 Bft) 97,87 %
09.03.2023 06:30 1,4 C 1,1 C -0,6 C 99 % 994,3 hPa 0,0 l/m 0 min 0 min 0 W/m 0,0 km/h (0 Bft) 95,83 %
09.03.2023 06:32 1,4 C 1,1 C -0,6 C 99 % 994,3 hPa 0,0 l/m 0 min 0 min 0 W/m 0,0 km/h (0 Bft) 97,87 %
09.03.2023 06:34 1,4 C 1,1 C -0,6 C 99 % 994,3 hPa 0,0 l/m 0 min 0 min 0 W/m 0,0 km/h (0 Bft) 97,87 %
09.03.2023 06:36 1,4 C 1,1 C -0,6 C 99 % 994,3 hPa 0,0 l/m 0 min 0 min 0 W/m 3,2 km/h (1 Bft) 97,87 %
09.03.2023 06:38 1,4 C 1,1 C -0,6 C 99 % 994,3 hPa 0,0 l/m 0 min 0 min 0 W/m 0,0 km/h (0 Bft) 95,65 %
09.03.2023 06:40 1,4 C 1,1 C -0,6 C 99 % 994,3 hPa 0,0 l/m 0 min 0 min 0 W/m 3,2 km/h (1 Bft) 97,87 %
09.03.2023 06:42 1,4 C 1,1 C -0,6 C 99 % 994,4 hPa 0,0 l/m 0 min 0 min 0 W/m 9,7 km/h (2 Bft) 93,62 %
09.03.2023 06:44 1,4 C 1,1 C -0,6 C 99 % 994,5 hPa 0,0 l/m 0 min 0 min 0 W/m 3,2 km/h (1 Bft) 97,87 %
09.03.2023 06:46 1,4 C 1,1 C -0,6 C 99 % 994,5 hPa 0,0 l/m 0 min 0 min 0 W/m 6,4 km/h (2 Bft) 97,87 %
09.03.2023 06:48 1,4 C 1,1 C -0,6 C 99 % 994,6 hPa 0,0 l/m 0 min 0 min 0 W/m 3,2 km/h (1 Bft) 95,74 %
09.03.2023 06:50 1,4 C 1,1 C -0,6 C 99 % 994,5 hPa 0,0 l/m 0 min 0 min 0 W/m 3,2 km/h (1 Bft) 100,00 %
09.03.2023 06:52 1,4 C 1,1 C -0,6 C 99 % 994,6 hPa 0,0 l/m 0 min 0 min 0 W/m 0,0 km/h (0 Bft) 100,00 %
09.03.2023 06:54 1,4 C 1,1 C -0,6 C 99 % 994,7 hPa 0,0 l/m 0 min 0 min 0 W/m 9,7 km/h (2 Bft) 97,87 %
09.03.2023 06:56 1,4 C 1,1 C -0,6 C 99 % 994,8 hPa 0,0 l/m 0 min 0 min 0 W/m 9,7 km/h (2 Bft) 97,87 %
09.03.2023 06:58 1,4 C 1,1 C -0,6 C 99 % 994,8 hPa 0,0 l/m 0 min 0 min 0 W/m 6,4 km/h (2 Bft) 100,00 %
09.03.2023 07:00 1,4 C 1,1 C -0,6 C 99 % 994,9 hPa 0,0 l/m 0 min 2 min 0 W/m 6,4 km/h (2 Bft) 97,87 %
09.03.2023 07:02 1,4 C 1,1 C -0,6 C 99 % 994,9 hPa 0,0 l/m 0 min 2 min 0 W/m 6,4 km/h (2 Bft) 95,74 %
09.03.2023 07:04 1,4 C 1,1 C -0,6 C 99 % 994,9 hPa 0,0 l/m 0 min 2 min 0 W/m 3,2 km/h (1 Bft) 95,65 %
09.03.2023 07:06 1,4 C 1,1 C -0,6 C 99 % 995,0 hPa 0,0 l/m 0 min 2 min 0 W/m 3,2 km/h (1 Bft) 97,87 %
09.03.2023 07:08 1,4 C 1,1 C -0,6 C 99 % 995,0 hPa 0,2 l/m 0 min 2 min 0 W/m 3,2 km/h (1 Bft) 97,87 %
09.03.2023 07:10 1,4 C 1,1 C -0,6 C 99 % 995,0 hPa 0,0 l/m 0 min 2 min 0 W/m 3,2 km/h (1 Bft) 97,73 %
09.03.2023 07:12 1,4 C 1,1 C -0,6 C 99 % 995,1 hPa 0,0 l/m 0 min 2 min 0 W/m 3,2 km/h (1 Bft) 95,74 %
09.03.2023 07:14 1,4 C 1,1 C -0,6 C 99 % 995,1 hPa 0,0 l/m 0 min 2 min 0 W/m 3,2 km/h (1 Bft) 95,74 %
09.03.2023 07:16 1,4 C 1,1 C -0,6 C 99 % 995,1 hPa 0,0 l/m 0 min 0 min 0 W/m 6,4 km/h (2 Bft) 100,00 %
09.03.2023 07:18 1,4 C 1,1 C -0,6 C 99 % 995,0 hPa 0,0 l/m 0 min 0 min 0 W/m 0,0 km/h (0 Bft) 95,74 %
09.03.2023 07:20 1,4 C 1,1 C -0,6 C 99 % 995,0 hPa 0,0 l/m 0 min 0 min 2 W/m 3,2 km/h (1 Bft) 97,87 %
09.03.2023 07:22 1,4 C 1,1 C -0,6 C 99 % 995,0 hPa 0,0 l/m 0 min 0 min 5 W/m 3,2 km/h (1 Bft) 97,87 %
09.03.2023 07:24 1,4 C 1,1 C -0,6 C 99 % 995,1 hPa 0,0 l/m 0 min 0 min 5 W/m 0,0 km/h (0 Bft) 97,87 %
09.03.2023 07:26 1,4 C 1,1 C -0,6 C 99 % 995,1 hPa 0,0 l/m 0 min 0 min 5 W/m 0,0 km/h (0 Bft) 95,74 %
09.03.2023 07:28 1,4 C 1,1 C -0,6 C 99 % 995,1 hPa 0,0 l/m 0 min 0 min 6 W/m 0,0 km/h (0 Bft) 97,87 %
09.03.2023 07:30 1,4 C 1,1 C -0,6 C 99 % 995,1 hPa 0,0 l/m 0 min 0 min 7 W/m 0,0 km/h (0 Bft) 97,83 %
09.03.2023 07:32 1,4 C 1,1 C -0,6 C 99 % 995,1 hPa 0,0 l/m 0 min 0 min 7 W/m 0,0 km/h (0 Bft) 97,87 %
09.03.2023 07:34 1,4 C 1,1 C -0,6 C 99 % 995,0 hPa 0,0 l/m 0 min 0 min 7 W/m 0,0 km/h (0 Bft) 93,62 %
09.03.2023 07:36 1,4 C 1,1 C -0,6 C 99 % 995,0 hPa 0,0 l/m 0 min 0 min 8 W/m 0,0 km/h (0 Bft) 95,74 %
09.03.2023 07:38 1,4 C 1,1 C -0,6 C 99 % 995,0 hPa 0,0 l/m 0 min 0 min 11 W/m 0,0 km/h (0 Bft) 95,74 %
09.03.2023 07:40 1,4 C 1,1 C -0,6 C 99 % 995,0 hPa 0,0 l/m 0 min 0 min 18 W/m 0,0 km/h (0 Bft) 97,87 %
09.03.2023 07:45 1,4 C 1,1 C -0,6 C 99 % 995,1 hPa 0,0 l/m 0 min 0 min 21 W/m 0,0 km/h (0 Bft) 100,00 %
09.03.2023 07:46 1,4 C 1,1 C -0,6 C 99 % 995,1 hPa 0,0 l/m 0 min 0 min 19 W/m 0,0 km/h (0 Bft) 100,00 %
09.03.2023 07:48 1,4 C 1,1 C -0,6 C 99 % 995,1 hPa 0,0 l/m 0 min 2 min 18 W/m 0,0 km/h (0 Bft) 95,74 %
09.03.2023 07:50 1,5 C 1,1 C 0,0 C 99 % 995,1 hPa 0,0 l/m 0 min 2 min 23 W/m 0,0 km/h (0 Bft) 97,87 %
09.03.2023 07:52 1,5 C 1,1 C 0,0 C 99 % 995,1 hPa 0,0 l/m 0 min 0 min 32 W/m 0,0 km/h (0 Bft) 48,84 %
09.03.2023 07:54 1,5 C 1,1 C 0,0 C 99 % 995,1 hPa 0,0 l/m 0 min 0 min 50 W/m 0,0 km/h (0 Bft) 97,87 %
09.03.2023 07:56 1,5 C 1,7 C 0,0 C 99 % 995,2 hPa 0,0 l/m 0 min 0 min 58 W/m 0,0 km/h (0 Bft) 100,00 %
09.03.2023 07:58 1,6 C 1,7 C 0,0 C 99 % 995,2 hPa 0,0 l/m 0 min 0 min 51 W/m 0,0 km/h (0 Bft) 95,74 %
09.03.2023 08:00 1,6 C 1,7 C 0,0 C 99 % 995,3 hPa 0,0 l/m 0 min 0 min 53 W/m 0,0 km/h (0 Bft) 100,00 %
09.03.2023 08:02 1,6 C 1,7 C 0,0 C 99 % 995,2 hPa 0,0 l/m 0 min 0 min 56 W/m 0,0 km/h (0 Bft) 95,74 %
09.03.2023 08:04 1,6 C 1,7 C 0,0 C 99 % 995,3 hPa 0,0 l/m 0 min 0 min 62 W/m 0,0 km/h (0 Bft) 100,00 %
09.03.2023 08:06 1,7 C 2,2 C 0,0 C 99 % 995,3 hPa 0,0 l/m 0 min 0 min 61 W/m 0,0 km/h (0 Bft) 100,00 %
09.03.2023 08:08 1,7 C 2,2 C 0,0 C 99 % 995,3 hPa 0,0 l/m 0 min 0 min 62 W/m 0,0 km/h (0 Bft) 97,14 %
09.03.2023 08:10 1,7 C 2,2 C 0,0 C 99 % 995,4 hPa 0,0 l/m 0 min 0 min 53 W/m 0,0 km/h (0 Bft) 95,74 %
09.03.2023 08:12 1,7 C 2,2 C 0,0 C 99 % 995,4 hPa 0,0 l/m 0 min 0 min 52 W/m 0,0 km/h (0 Bft) 93,62 %
09.03.2023 08:14 1,7 C 2,2 C 0,0 C 99 % 995,4 hPa 0,0 l/m 0 min 0 min 52 W/m 0,0 km/h (0 Bft) 97,87 %
09.03.2023 08:16 1,7 C 2,2 C 0,0 C 99 % 995,5 hPa 0,0 l/m 0 min 0 min 54 W/m 0,0 km/h (0 Bft) 93,62 %
09.03.2023 08:18 1,8 C 2,2 C 0,0 C 99 % 995,5 hPa 0,0 l/m 0 min 0 min 49 W/m 0,0 km/h (0 Bft) 93,62 %
09.03.2023 08:20 1,8 C 2,2 C 0,0 C 99 % 995,6 hPa 0,0 l/m 0 min 0 min 44 W/m 0,0 km/h (0 Bft) 93,62 %
09.03.2023 08:22 1,8 C 2,2 C 0,0 C 99 % 995,6 hPa 0,0 l/m 0 min 0 min 46 W/m 0,0 km/h (0 Bft) 95,65 %
09.03.2023 08:24 1,8 C 2,2 C 0,0 C 99 % 995,7 hPa 0,0 l/m 0 min 0 min 50 W/m 0,0 km/h (0 Bft) 95,74 %
09.03.2023 08:26 1,8 C 2,2 C 0,0 C 99 % 995,8 hPa 0,0 l/m 0 min 0 min 55 W/m 0,0 km/h (0 Bft) 95,74 %
09.03.2023 08:28 1,8 C 2,2 C 0,0 C 99 % 995,7 hPa 0,0 l/m 0 min 0 min 62 W/m 0,0 km/h (0 Bft) 95,74 %
09.03.2023 08:30 1,9 C 2,2 C 0,0 C 99 % 995,7 hPa 0,0 l/m 0 min 0 min 59 W/m 0,0 km/h (0 Bft) 95,74 %
09.03.2023 08:32 1,9 C 2,2 C 0,0 C 99 % 995,8 hPa 0,0 l/m 0 min 0 min 57 W/m 0,0 km/h (0 Bft) 93,62 %
09.03.2023 08:34 1,9 C 2,2 C 0,0 C 99 % 995,9 hPa 0,0 l/m 0 min 0 min 56 W/m 0,0 km/h (0 Bft) 95,65 %
09.03.2023 08:36 1,9 C 2,2 C 0,0 C 99 % 995,9 hPa 0,0 l/m 0 min 0 min 63 W/m 0,0 km/h (0 Bft) 93,62 %
09.03.2023 08:38 1,9 C 2,2 C 0,0 C 99 % 996,0 hPa 0,0 l/m 0 min 0 min 59 W/m 0,0 km/h (0 Bft) 95,74 %
09.03.2023 08:40 1,9 C 2,2 C 0,0 C 99 % 996,0 hPa 0,0 l/m 0 min 0 min 52 W/m 0,0 km/h (0 Bft) 95,74 %
09.03.2023 08:42 1,9 C 2,2 C 0,0 C 99 % 996,0 hPa 0,0 l/m 0 min 0 min 48 W/m 0,0 km/h (0 Bft) 95,74 %
09.03.2023 08:44 1,9 C 2,2 C 0,0 C 99 % 996,1 hPa 0,0 l/m 0 min 0 min 51 W/m 0,0 km/h (0 Bft) 97,87 %
09.03.2023 08:46 1,9 C 2,2 C 0,0 C 99 % 996,2 hPa 0,0 l/m 0 min 0 min 52 W/m 0,0 km/h (0 Bft) 97,87 %
09.03.2023 08:48 1,9 C 2,2 C 0,6 C 99 % 996,2 hPa 0,0 l/m 0 min 0 min 50 W/m 0,0 km/h (0 Bft) 97,83 %
09.03.2023 08:50 2,0 C 2,2 C 0,0 C 99 % 996,2 hPa 0,0 l/m 0 min 0 min 51 W/m 0,0 km/h (0 Bft) 95,74 %
09.03.2023 08:52 2,0 C 2,2 C 0,0 C 99 % 996,3 hPa 0,0 l/m 0 min 0 min 50 W/m 0,0 km/h (0 Bft) 97,87 %
09.03.2023 08:54 2,0 C 2,2 C 0,6 C 99 % 996,4 hPa 0,0 l/m 0 min 0 min 46 W/m 0,0 km/h (0 Bft) 96,00 %
09.03.2023 08:56 2,0 C 2,2 C 0,6 C 99 % 996,4 hPa 0,0 l/m 0 min 0 min 41 W/m 0,0 km/h (0 Bft) 95,74 %
09.03.2023 08:58 2,0 C 2,2 C 0,6 C 99 % 996,5 hPa 0,0 l/m 0 min 0 min 40 W/m 0,0 km/h (0 Bft) 95,74 %
09.03.2023 09:00 2,0 C 2,2 C 0,6 C 99 % 996,5 hPa 0,0 l/m 0 min 0 min 41 W/m 0,0 km/h (0 Bft) 100,00 %
09.03.2023 09:02 2,0 C 2,2 C 0,6 C 99 % 996,6 hPa 0,0 l/m 0 min 0 min 39 W/m 0,0 km/h (0 Bft) 100,00 %
09.03.2023 09:04 2,1 C 2,2 C 0,6 C 99 % 996,7 hPa 0,0 l/m 0 min 0 min 39 W/m 0,0 km/h (0 Bft) 97,22 %
09.03.2023 09:06 2,1 C 2,2 C 0,0 C 99 % 996,8 hPa 0,0 l/m 0 min 0 min 39 W/m 0,0 km/h (0 Bft) 98,21 %
09.03.2023 09:08 2,1 C 2,2 C 0,6 C 99 % 996,8 hPa 0,0 l/m 0 min 0 min 39 W/m 0,0 km/h (0 Bft) 100,00 %
09.03.2023 09:10 2,1 C 2,2 C 0,6 C 99 % 996,8 hPa 0,0 l/m 0 min 0 min 42 W/m 0,0 km/h (0 Bft) 97,87 %
09.03.2023 09:12 2,1 C 2,2 C 0,6 C 99 % 996,8 hPa 0,0 l/m 0 min 0 min 45 W/m 0,0 km/h (0 Bft) 100,00 %
09.03.2023 09:14 2,1 C 2,2 C 0,6 C 99 % 996,8 hPa 0,0 l/m 0 min 0 min 51 W/m 0,0 km/h (0 Bft) 100,00 %
09.03.2023 09:16 2,1 C 2,2 C 0,6 C 99 % 996,8 hPa 0,0 l/m 0 min 0 min 59 W/m 0,0 km/h (0 Bft) 100,00 %
09.03.2023 09:18 2,1 C 2,2 C 0,6 C 99 % 996,9 hPa 0,0 l/m 0 min 0 min 70 W/m 0,0 km/h (0 Bft) 97,87 %
09.03.2023 09:20 2,1 C 2,2 C 0,6 C 99 % 996,8 hPa 0,0 l/m 0 min 0 min 74 W/m 0,0 km/h (0 Bft) 100,00 %
09.03.2023 09:22 2,1 C 2,2 C 0,6 C 99 % 996,9 hPa 0,0 l/m 0 min 0 min 74 W/m 0,0 km/h (0 Bft) 97,87 %
09.03.2023 09:24 2,1 C 2,2 C 0,6 C 99 % 996,9 hPa 0,0 l/m 0 min 0 min 78 W/m 0,0 km/h (0 Bft) 100,00 %
09.03.2023 09:26 2,2 C 2,2 C 0,6 C 99 % 996,9 hPa 0,0 l/m 0 min 0 min 75 W/m 0,0 km/h (0 Bft) 100,00 %
09.03.2023 09:28 2,2 C 2,2 C 0,6 C 99 % 996,9 hPa 0,0 l/m 0 min 0 min 78 W/m 0,0 km/h (0 Bft) 100,00 %
09.03.2023 09:30 2,2 C 2,2 C 0,6 C 99 % 997,0 hPa 0,0 l/m 0 min 0 min 80 W/m 0,0 km/h (0 Bft) 100,00 %
09.03.2023 09:32 2,2 C 2,2 C 0,6 C 99 % 997,0 hPa 0,0 l/m 0 min 0 min 82 W/m 0,0 km/h (0 Bft) 100,00 %
09.03.2023 09:34 2,2 C 2,2 C 0,6 C 99 % 997,0 hPa 0,0 l/m 0 min 0 min 85 W/m 0,0 km/h (0 Bft) 97,87 %
09.03.2023 09:36 2,2 C 2,8 C 0,6 C 99 % 997,1 hPa 0,0 l/m 0 min 0 min 90 W/m 0,0 km/h (0 Bft) 100,00 %
09.03.2023 09:38 2,3 C 2,8 C 0,6 C 99 % 997,1 hPa 0,0 l/m 0 min 0 min 84 W/m 9,7 km/h (2 Bft) 97,87 %
09.03.2023 09:40 2,3 C 2,8 C 0,6 C 99 % 997,2 hPa 0,0 l/m 0 min 0 min 71 W/m 0,0 km/h (0 Bft) 100,00 %
09.03.2023 09:42 2,3 C 2,8 C 0,6 C 99 % 997,2 hPa 0,0 l/m 0 min 0 min 78 W/m 0,0 km/h (0 Bft) 97,87 %
09.03.2023 09:44 2,3 C 2,8 C 0,6 C 99 % 997,2 hPa 0,0 l/m 0 min 0 min 80 W/m 0,0 km/h (0 Bft) 100,00 %
09.03.2023 09:46 2,3 C 2,8 C 0,6 C 99 % 997,3 hPa 0,0 l/m 0 min 0 min 81 W/m 0,0 km/h (0 Bft) 100,00 %
09.03.2023 09:48 2,4 C 2,8 C 0,6 C 99 % 997,3 hPa 0,0 l/m 0 min 0 min 77 W/m 0,0 km/h (0 Bft) 100,00 %
09.03.2023 09:50 2,4 C 2,8 C 0,6 C 99 % 997,3 hPa 0,0 l/m 0 min 0 min 82 W/m 0,0 km/h (0 Bft) 100,00 %
09.03.2023 09:52 2,4 C 2,8 C 0,6 C 99 % 997,3 hPa 0,0 l/m 0 min 0 min 86 W/m 6,4 km/h (2 Bft) 97,83 %
09.03.2023 09:54 2,4 C 2,8 C 0,6 C 99 % 997,3 hPa 0,0 l/m 0 min 0 min 91 W/m 3,2 km/h (1 Bft) 100,00 %
09.03.2023 09:56 2,4 C 2,8 C 0,6 C 99 % 997,3 hPa 0,0 l/m 0 min 0 min 96 W/m 3,2 km/h (1 Bft) 97,87 %
09.03.2023 09:58 2,4 C 2,8 C 0,6 C 99 % 997,4 hPa 0,0 l/m 0 min 0 min 92 W/m 6,4 km/h (2 Bft) 100,00 %
09.03.2023 10:00 2,4 C 2,8 C 0,6 C 99 % 997,4 hPa 0,0 l/m 0 min 0 min 91 W/m 6,4 km/h (2 Bft) 95,74 %
09.03.2023 10:02 2,4 C 2,8 C 0,6 C 99 % 997,6 hPa 0,0 l/m 0 min 0 min 87 W/m 6,4 km/h (2 Bft) 97,87 %
09.03.2023 10:04 2,4 C 2,8 C 0,6 C 99 % 997,6 hPa 0,0 l/m 0 min 0 min 82 W/m 6,4 km/h (2 Bft) 97,87 %
09.03.2023 10:06 2,4 C 2,8 C 0,6 C 99 % 997,7 hPa 0,0 l/m 0 min 0 min 86 W/m 3,2 km/h (1 Bft) 93,48 %
09.03.2023 10:08 2,4 C 2,8 C 0,6 C 99 % 997,7 hPa 0,0 l/m 0 min 0 min 92 W/m 6,4 km/h (2 Bft) 93,62 %
09.03.2023 10:10 2,4 C 2,8 C 0,6 C 99 % 997,6 hPa 0,0 l/m 0 min 0 min 103 W/m 9,7 km/h (2 Bft) 95,74 %
09.03.2023 10:12 2,4 C 2,8 C 0,6 C 99 % 997,6 hPa 0,0 l/m 0 min 0 min 92 W/m 6,4 km/h (2 Bft) 95,74 %
09.03.2023 10:14 2,4 C 2,8 C 0,6 C 99 % 997,7 hPa 0,0 l/m 0 min 0 min 84 W/m 6,4 km/h (2 Bft) 91,49 %
09.03.2023 10:16 2,5 C 2,8 C 0,6 C 99 % 997,8 hPa 0,0 l/m 0 min 0 min 81 W/m 6,4 km/h (2 Bft) 95,74 %
09.03.2023 10:18 2,4 C 2,2 C 0,6 C 99 % 997,9 hPa 0,0 l/m 0 min 0 min 73 W/m 9,7 km/h (2 Bft) 93,48 %
09.03.2023 10:20 2,4 C 2,8 C 0,6 C 99 % 997,8 hPa 0,0 l/m 0 min 0 min 70 W/m 6,4 km/h (2 Bft) 95,74 %
09.03.2023 10:22 2,4 C 2,8 C 0,6 C 99 % 997,8 hPa 0,0 l/m 0 min 0 min 80 W/m 6,4 km/h (2 Bft) 95,74 %
09.03.2023 10:24 2,4 C 2,8 C 0,6 C 99 % 997,8 hPa 0,0 l/m 0 min 0 min 117 W/m 6,4 km/h (2 Bft) 95,74 %
09.03.2023 10:26 2,4 C 2,8 C 1,1 C 99 % 997,8 hPa 0,0 l/m 0 min 0 min 135 W/m 3,2 km/h (1 Bft) 93,62 %
09.03.2023 10:28 2,4 C 3,3 C 1,1 C 99 % 997,8 hPa 0,0 l/m 0 min 0 min 132 W/m 3,2 km/h (1 Bft) 95,74 %
09.03.2023 10:30 2,5 C 3,3 C 1,1 C 99 % 997,9 hPa 0,0 l/m 0 min 0 min 121 W/m 3,2 km/h (1 Bft) 91,49 %
09.03.2023 10:32 2,6 C 3,3 C 1,1 C 99 % 997,9 hPa 0,0 l/m 0 min 0 min 135 W/m 3,2 km/h (1 Bft) 95,65 %
09.03.2023 10:34 2,6 C 3,3 C 1,1 C 99 % 998,0 hPa 0,0 l/m 0 min 0 min 130 W/m 6,4 km/h (2 Bft) 95,74 %
09.03.2023 10:36 2,6 C 3,3 C 1,1 C 99 % 998,0 hPa 0,0 l/m 0 min 0 min 113 W/m 6,4 km/h (2 Bft) 95,74 %
09.03.2023 10:38 2,6 C 3,3 C 1,1 C 99 % 997,9 hPa 0,0 l/m 0 min 0 min 135 W/m 3,2 km/h (1 Bft) 93,62 %
09.03.2023 10:40 2,6 C 3,3 C 1,1 C 99 % 997,9 hPa 0,0 l/m 0 min 0 min 170 W/m 3,2 km/h (1 Bft) 95,74 %
09.03.2023 10:42 2,6 C 2,8 C 1,1 C 99 % 997,9 hPa 0,0 l/m 0 min 0 min 172 W/m 0,0 km/h (0 Bft) 93,62 %
09.03.2023 10:44 2,6 C 3,3 C 1,1 C 99 % 997,9 hPa 0,0 l/m 0 min 0 min 171 W/m 0,0 km/h (0 Bft) 97,83 %
09.03.2023 10:46 2,6 C 3,3 C 1,1 C 99 % 997,9 hPa 0,0 l/m 0 min 0 min 178 W/m 0,0 km/h (0 Bft) 91,49 %
09.03.2023 10:48 2,6 C 3,3 C 1,1 C 99 % 997,9 hPa 0,0 l/m 0 min 0 min 176 W/m 0,0 km/h (0 Bft) 97,87 %
09.03.2023 10:50 2,7 C 3,9 C 1,1 C 99 % 997,9 hPa 0,0 l/m 0 min 0 min 171 W/m 0,0 km/h (0 Bft) 97,87 %
09.03.2023 10:52 2,7 C 3,9 C 1,1 C 99 % 998,0 hPa 0,0 l/m 0 min 0 min 159 W/m 0,0 km/h (0 Bft) 95,74 %
09.03.2023 10:54 2,7 C 3,9 C 1,1 C 99 % 998,0 hPa 0,0 l/m 0 min 0 min 139 W/m 0,0 km/h (0 Bft) 97,87 %
09.03.2023 10:56 2,7 C 3,9 C 1,1 C 99 % 998,0 hPa 0,0 l/m 0 min 0 min 153 W/m 3,2 km/h (1 Bft) 100,00 %
09.03.2023 10:58 2,8 C 3,9 C 1,7 C 99 % 998,1 hPa 0,0 l/m 0 min 0 min 158 W/m 6,4 km/h (2 Bft) 93,48 %
09.03.2023 11:00 2,8 C 3,9 C 1,7 C 99 % 998,1 hPa 0,0 l/m 0 min 0 min 139 W/m 6,4 km/h (2 Bft) 93,62 %
09.03.2023 11:02 2,9 C 3,9 C 1,7 C 99 % 998,2 hPa 0,0 l/m 0 min 0 min 128 W/m 9,7 km/h (2 Bft) 95,74 %
09.03.2023 11:04 2,9 C 3,9 C 1,7 C 99 % 998,2 hPa 0,0 l/m 0 min 0 min 108 W/m 6,4 km/h (2 Bft) 95,74 %
09.03.2023 11:06 2,9 C 3,9 C 1,7 C 99 % 998,3 hPa 0,0 l/m 0 min 0 min 88 W/m 6,4 km/h (2 Bft) 95,74 %
09.03.2023 11:08 2,9 C 3,3 C 1,1 C 99 % 998,2 hPa 0,0 l/m 0 min 0 min 86 W/m 9,7 km/h (2 Bft) 97,87 %
09.03.2023 11:10 2,9 C 3,3 C 1,1 C 99 % 998,2 hPa 0,0 l/m 0 min 0 min 105 W/m 3,2 km/h (1 Bft) 95,74 %
09.03.2023 11:12 2,9 C 3,3 C 1,1 C 99 % 998,2 hPa 0,0 l/m 0 min 0 min 110 W/m 3,2 km/h (1 Bft) 97,83 %
09.03.2023 11:14 3,0 C 3,3 C 1,1 C 99 % 998,3 hPa 0,0 l/m 0 min 0 min 121 W/m 6,4 km/h (2 Bft) 95,74 %
09.03.2023 11:16 2,9 C 3,3 C 1,1 C 99 % 998,4 hPa 0,0 l/m 0 min 0 min 127 W/m 3,2 km/h (1 Bft) 93,62 %
09.03.2023 11:18 3,0 C 3,3 C 1,1 C 99 % 998,4 hPa 0,0 l/m 0 min 0 min 98 W/m 3,2 km/h (1 Bft) 97,87 %
09.03.2023 11:20 3,0 C 3,3 C 1,1 C 99 % 998,4 hPa 0,0 l/m 0 min 0 min 107 W/m 3,2 km/h (1 Bft) 97,87 %
09.03.2023 11:22 3,1 C 3,3 C 1,7 C 99 % 998,4 hPa 0,0 l/m 0 min 0 min 121 W/m 6,4 km/h (2 Bft) 95,74 %
09.03.2023 11:24 3,1 C 3,3 C 1,1 C 99 % 998,4 hPa 0,0 l/m 0 min 0 min 101 W/m 6,4 km/h (2 Bft) 97,83 %
09.03.2023 11:26 3,1 C 3,3 C 1,1 C 99 % 998,4 hPa 0,0 l/m 0 min 0 min 78 W/m 9,7 km/h (2 Bft) 93,62 %
09.03.2023 11:28 3,0 C 3,3 C 1,1 C 99 % 998,5 hPa 0,0 l/m 0 min 0 min 94 W/m 3,2 km/h (1 Bft) 95,74 %
09.03.2023 11:30 3,0 C 3,3 C 1,1 C 99 % 998,5 hPa 0,0 l/m 0 min 0 min 135 W/m 6,4 km/h (2 Bft) 95,74 %
09.03.2023 11:32 3,0 C 3,3 C 1,1 C 99 % 998,4 hPa 0,0 l/m 0 min 0 min 145 W/m 6,4 km/h (2 Bft) 93,62 %
09.03.2023 11:34 3,1 C 3,9 C 1,7 C 99 % 998,4 hPa 0,0 l/m 0 min 0 min 155 W/m 3,2 km/h (1 Bft) 93,62 %
09.03.2023 11:36 3,1 C 3,9 C 1,7 C 99 % 998,4 hPa 0,0 l/m 0 min 0 min 137 W/m 3,2 km/h (1 Bft) 78,72 %
09.03.2023 11:38 3,1 C 3,9 C 1,7 C 99 % 998,5 hPa 0,0 l/m 0 min 0 min 110 W/m 3,2 km/h (1 Bft) 72,73 %
09.03.2023 11:40 3,1 C 3,9 C 1,7 C 99 % 998,5 hPa 0,0 l/m 0 min 0 min 107 W/m 0,0 km/h (0 Bft) 97,87 %
09.03.2023 11:42 3,1 C 3,9 C 1,7 C 99 % 998,5 hPa 0,0 l/m 0 min 0 min 145 W/m 3,2 km/h (1 Bft) 97,87 %
09.03.2023 11:44 3,2 C 3,9 C 1,7 C 99 % 998,5 hPa 0,0 l/m 0 min 0 min 155 W/m 3,2 km/h (1 Bft) 97,87 %
09.03.2023 11:46 3,2 C 3,9 C 1,7 C 99 % 998,5 hPa 0,0 l/m 0 min 0 min 162 W/m 3,2 km/h (1 Bft) 95,74 %
09.03.2023 11:48 3,2 C 3,9 C 1,7 C 99 % 998,5 hPa 0,0 l/m 0 min 0 min 168 W/m 0,0 km/h (0 Bft) 100,00 %
09.03.2023 11:50 3,2 C 3,9 C 1,7 C 99 % 998,4 hPa 0,0 l/m 0 min 0 min 173 W/m 3,2 km/h (1 Bft) 100,00 %
09.03.2023 11:52 3,2 C 3,9 C 1,7 C 99 % 998,4 hPa 0,0 l/m 0 min 0 min 176 W/m 6,4 km/h (2 Bft) 100,00 %
09.03.2023 11:54 3,3 C 3,9 C 1,7 C 99 % 998,4 hPa 0,0 l/m 0 min 0 min 178 W/m 3,2 km/h (1 Bft) 100,00 %
09.03.2023 11:56 3,3 C 4,4 C 1,7 C 99 % 998,4 hPa 0,0 l/m 0 min 0 min 198 W/m 3,2 km/h (1 Bft) 97,87 %
09.03.2023 11:58 3,3 C 4,4 C 1,7 C 99 % 998,4 hPa 0,0 l/m 0 min 0 min 182 W/m 0,0 km/h (0 Bft) 100,00 %
09.03.2023 12:00 3,4 C 4,4 C 1,7 C 99 % 998,3 hPa 0,0 l/m 0 min 0 min 186 W/m 3,2 km/h (1 Bft) 100,00 %
09.03.2023 12:02 3,4 C 5,0 C 1,7 C 99 % 998,3 hPa 0,0 l/m 0 min 0 min 239 W/m 3,2 km/h (1 Bft) 100,00 %
09.03.2023 12:04 3,5 C 5,0 C 1,7 C 99 % 998,4 hPa 0,0 l/m 0 min 0 min 216 W/m 3,2 km/h (1 Bft) 97,87 %
09.03.2023 12:07 3,5 C 4,4 C 1,7 C 99 % 998,5 hPa 0,0 l/m 0 min 0 min 174 W/m 3,2 km/h (1 Bft) 97,26 %
09.03.2023 12:08 3,5 C 4,4 C 1,7 C 99 % 998,5 hPa 0,0 l/m 0 min 0 min 159 W/m 3,2 km/h (1 Bft) 100,00 %
09.03.2023 12:12 3,6 C 4,4 C 1,7 C 99 % 998,6 hPa 0,0 l/m 0 min 0 min 121 W/m 0,0 km/h (0 Bft) 100,00 %
09.03.2023 12:14 3,5 C 3,9 C 1,7 C 99 % 998,6 hPa 0,0 l/m 0 min 0 min 131 W/m 0,0 km/h (0 Bft) 97,87 %
09.03.2023 12:16 3,5 C 4,4 C 1,7 C 99 % 998,6 hPa 0,0 l/m 0 min 0 min 129 W/m 3,2 km/h (1 Bft) 97,87 %
09.03.2023 12:18 3,6 C 4,4 C 1,7 C 99 % 998,7 hPa 0,0 l/m 0 min 0 min 122 W/m 3,2 km/h (1 Bft) 95,65 %
09.03.2023 12:20 3,6 C 4,4 C 1,7 C 99 % 998,7 hPa 0,0 l/m 0 min 0 min 124 W/m 3,2 km/h (1 Bft) 95,74 %
09.03.2023 12:22 3,6 C 4,4 C 1,7 C 99 % 998,7 hPa 0,0 l/m 0 min 0 min 117 W/m 0,0 km/h (0 Bft) 97,87 %
09.03.2023 12:24 3,6 C 4,4 C 1,7 C 99 % 998,7 hPa 0,0 l/m 0 min 0 min 98 W/m 3,2 km/h (1 Bft) 97,87 %
09.03.2023 12:26 3,6 C 4,4 C 1,7 C 99 % 998,7 hPa 0,0 l/m 0 min 0 min 104 W/m 6,4 km/h (2 Bft) 97,87 %
09.03.2023 12:28 3,6 C 4,4 C 1,7 C 99 % 998,7 hPa 0,0 l/m 0 min 0 min 109 W/m 3,2 km/h (1 Bft) 95,74 %
09.03.2023 12:30 3,6 C 3,9 C 1,7 C 99 % 998,6 hPa 0,0 l/m 0 min 0 min 98 W/m 3,2 km/h (1 Bft) 97,87 %
09.03.2023 12:32 3,6 C 4,4 C 2,2 C 99 % 998,7 hPa 0,0 l/m 0 min 0 min 110 W/m 0,0 km/h (0 Bft) 97,83 %
09.03.2023 12:34 3,7 C 4,4 C 1,7 C 99 % 998,7 hPa 0,0 l/m 0 min 0 min 108 W/m 0,0 km/h (0 Bft) 97,87 %
09.03.2023 12:36 3,7 C 4,4 C 1,7 C 99 % 998,7 hPa 0,0 l/m 0 min 0 min 96 W/m 3,2 km/h (1 Bft) 97,87 %
09.03.2023 12:38 3,7 C 4,4 C 1,7 C 99 % 998,7 hPa 0,0 l/m 0 min 0 min 96 W/m 6,4 km/h (2 Bft) 95,74 %
09.03.2023 12:40 3,7 C 4,4 C 1,7 C 99 % 998,8 hPa 0,0 l/m 0 min 0 min 107 W/m 3,2 km/h (1 Bft) 97,87 %
09.03.2023 12:42 3,7 C 4,4 C 1,7 C 99 % 998,8 hPa 0,0 l/m 0 min 0 min 109 W/m 3,2 km/h (1 Bft) 95,74 %
09.03.2023 12:44 3,7 C 4,4 C 1,7 C 99 % 998,8 hPa 0,0 l/m 0 min 0 min 114 W/m 0,0 km/h (0 Bft) 95,65 %
09.03.2023 12:46 3,7 C 4,4 C 2,2 C 99 % 998,8 hPa 0,0 l/m 0 min 0 min 108 W/m 3,2 km/h (1 Bft) 91,49 %
09.03.2023 12:48 3,8 C 4,4 C 2,2 C 99 % 998,8 hPa 0,0 l/m 0 min 0 min 113 W/m 0,0 km/h (0 Bft) 95,74 %
09.03.2023 12:50 3,8 C 4,4 C 1,7 C 99 % 998,8 hPa 0,0 l/m 0 min 0 min 107 W/m 3,2 km/h (1 Bft) 97,87 %
09.03.2023 12:52 3,8 C 4,4 C 2,2 C 99 % 998,8 hPa 0,0 l/m 0 min 0 min 104 W/m 3,2 km/h (1 Bft) 97,87 %
09.03.2023 12:54 3,8 C 4,4 C 2,2 C 99 % 998,8 hPa 0,0 l/m 0 min 0 min 110 W/m 3,2 km/h (1 Bft) 97,87 %
09.03.2023 12:56 3,8 C 4,4 C 1,7 C 99 % 998,8 hPa 0,0 l/m 0 min 0 min 106 W/m 6,4 km/h (2 Bft) 93,62 %
09.03.2023 12:58 3,8 C 4,4 C 1,7 C 99 % 998,8 hPa 0,0 l/m 0 min 0 min 98 W/m 0,0 km/h (0 Bft) 97,83 %
09.03.2023 13:00 3,8 C 4,4 C 1,7 C 99 % 998,7 hPa 0,0 l/m 0 min 0 min 91 W/m 0,0 km/h (0 Bft) 97,87 %
09.03.2023 13:02 3,8 C 4,4 C 1,7 C 99 % 998,7 hPa 0,0 l/m 0 min 0 min 91 W/m 3,2 km/h (1 Bft) 97,87 %
09.03.2023 13:04 3,8 C 4,4 C 1,7 C 99 % 998,7 hPa 0,0 l/m 0 min 0 min 95 W/m 0,0 km/h (0 Bft) 95,74 %
09.03.2023 13:06 3,8 C 4,4 C 1,7 C 99 % 998,6 hPa 0,0 l/m 0 min 0 min 111 W/m 6,4 km/h (2 Bft) 95,74 %
09.03.2023 13:08 3,9 C 4,4 C 2,2 C 99 % 998,5 hPa 0,0 l/m 0 min 0 min 136 W/m 3,2 km/h (1 Bft) 97,87 %
09.03.2023 13:10 3,9 C 4,4 C 2,2 C 99 % 998,6 hPa 0,0 l/m 0 min 0 min 150 W/m 3,2 km/h (1 Bft) 97,87 %
09.03.2023 13:12 3,9 C 5,0 C 2,2 C 99 % 998,6 hPa 0,0 l/m 0 min 0 min 152 W/m 6,4 km/h (2 Bft) 97,83 %
09.03.2023 13:14 3,9 C 5,0 C 2,2 C 99 % 998,6 hPa 0,0 l/m 0 min 0 min 147 W/m 9,7 km/h (2 Bft) 97,87 %
09.03.2023 13:16 4,0 C 4,4 C 2,2 C 99 % 998,6 hPa 0,0 l/m 0 min 0 min 129 W/m 6,4 km/h (2 Bft) 97,87 %
09.03.2023 13:18 4,0 C 4,4 C 2,2 C 99 % 998,6 hPa 0,0 l/m 0 min 0 min 102 W/m 0,0 km/h (0 Bft) 97,87 %
09.03.2023 13:20 4,1 C 4,4 C 2,2 C 99 % 998,6 hPa 0,0 l/m 0 min 0 min 92 W/m 6,4 km/h (2 Bft) 97,87 %
09.03.2023 13:22 4,1 C 4,4 C 2,2 C 99 % 998,5 hPa 0,0 l/m 0 min 0 min 86 W/m 0,0 km/h (0 Bft) 95,74 %
09.03.2023 13:24 4,1 C 4,4 C 2,2 C 99 % 998,5 hPa 0,0 l/m 0 min 0 min 94 W/m 0,0 km/h (0 Bft) 97,83 %
09.03.2023 13:26 4,1 C 4,4 C 2,2 C 99 % 998,5 hPa 0,0 l/m 0 min 0 min 109 W/m 0,0 km/h (0 Bft) 97,87 %
09.03.2023 13:28 4,1 C 4,4 C 2,2 C 99 % 998,3 hPa 0,0 l/m 0 min 2 min 126 W/m 0,0 km/h (0 Bft) 97,87 %
09.03.2023 13:30 4,1 C 5,0 C 2,2 C 99 % 998,3 hPa 0,0 l/m 0 min 0 min 155 W/m 0,0 km/h (0 Bft) 97,87 %
09.03.2023 13:32 4,2 C 5,0 C 2,2 C 99 % 998,3 hPa 0,0 l/m 0 min 0 min 159 W/m 0,0 km/h (0 Bft) 97,87 %
09.03.2023 13:34 4,2 C 5,0 C 2,2 C 99 % 998,3 hPa 0,0 l/m 0 min 0 min 152 W/m 0,0 km/h (0 Bft) 97,87 %
09.03.2023 13:36 4,2 C 5,0 C 2,2 C 99 % 998,2 hPa 0,0 l/m 0 min 0 min 144 W/m 0,0 km/h (0 Bft) 97,87 %
09.03.2023 13:38 4,3 C 5,0 C 2,2 C 99 % 998,3 hPa 0,0 l/m 0 min 0 min 124 W/m 0,0 km/h (0 Bft) 100,00 %
09.03.2023 13:40 4,3 C 4,4 C 2,2 C 98 % 998,2 hPa 0,0 l/m 0 min 0 min 116 W/m 0,0 km/h (0 Bft) 100,00 %
09.03.2023 13:42 4,3 C 4,4 C 2,2 C 98 % 998,2 hPa 0,2 l/m 0 min 2 min 104 W/m 3,2 km/h (1 Bft) 97,87 %
09.03.2023 13:44 4,3 C 4,4 C 2,2 C 98 % 998,2 hPa 0,0 l/m 0 min 2 min 88 W/m 3,2 km/h (1 Bft) 97,87 %
09.03.2023 13:46 4,3 C 4,4 C 2,2 C 98 % 998,1 hPa 0,0 l/m 0 min 2 min 83 W/m 0,0 km/h (0 Bft) 96,36 %
09.03.2023 13:48 4,3 C 4,4 C 2,2 C 98 % 998,1 hPa 0,0 l/m 0 min 2 min 72 W/m 0,0 km/h (0 Bft) 97,87 %
09.03.2023 13:50 4,4 C 4,4 C 2,2 C 99 % 998,1 hPa 0,0 l/m 0 min 0 min 74 W/m 0,0 km/h (0 Bft) 95,74 %
09.03.2023 13:52 4,4 C 4,4 C 2,2 C 99 % 998,1 hPa 0,0 l/m 0 min 0 min 79 W/m 0,0 km/h (0 Bft) 40,00 %
09.03.2023 13:54 4,4 C 4,4 C 2,2 C 99 % 998,1 hPa 0,0 l/m 0 min 0 min 97 W/m 0,0 km/h (0 Bft) 95,74 %
09.03.2023 13:56 4,4 C 4,4 C 2,2 C 99 % 998,0 hPa 0,0 l/m 0 min 0 min 90 W/m 6,4 km/h (2 Bft) 97,87 %
09.03.2023 13:58 4,4 C 4,4 C 2,2 C 99 % 998,0 hPa 0,0 l/m 0 min 0 min 61 W/m 3,2 km/h (1 Bft) 97,87 %
09.03.2023 14:00 4,4 C 4,4 C 2,2 C 99 % 998,0 hPa 0,0 l/m 0 min 0 min 57 W/m 0,0 km/h (0 Bft) 97,83 %
09.03.2023 14:02 4,4 C 4,4 C 2,2 C 99 % 998,0 hPa 0,0 l/m 0 min 0 min 70 W/m 3,2 km/h (1 Bft) 95,74 %
09.03.2023 14:04 4,4 C 4,4 C 2,2 C 98 % 998,0 hPa 0,0 l/m 0 min 2 min 91 W/m 3,2 km/h (1 Bft) 97,87 %
09.03.2023 14:06 4,4 C 4,4 C 2,2 C 98 % 998,0 hPa 0,0 l/m 0 min 2 min 97 W/m 0,0 km/h (0 Bft) 97,87 %
09.03.2023 14:08 4,4 C 4,4 C 2,2 C 98 % 998,0 hPa 0,2 l/m 0 min 2 min 78 W/m 0,0 km/h (0 Bft) 97,87 %
09.03.2023 14:10 4,4 C 4,4 C 2,2 C 98 % 998,0 hPa 0,0 l/m 0 min 2 min 68 W/m 6,4 km/h (2 Bft) 97,87 %
09.03.2023 14:12 4,4 C 4,4 C 2,2 C 98 % 998,0 hPa 0,2 l/m 0 min 2 min 65 W/m 3,2 km/h (1 Bft) 97,83 %
09.03.2023 14:14 4,5 C 4,4 C 2,2 C 98 % 998,0 hPa 0,0 l/m 0 min 2 min 61 W/m 6,4 km/h (2 Bft) 97,87 %
09.03.2023 14:16 4,5 C 4,4 C 2,2 C 98 % 998,0 hPa 0,0 l/m 0 min 2 min 58 W/m 3,2 km/h (1 Bft) 93,62 %
09.03.2023 14:18 4,5 C 4,4 C 2,2 C 98 % 998,0 hPa 0,0 l/m 0 min 0 min 47 W/m 3,2 km/h (1 Bft) 95,74 %
09.03.2023 14:20 4,5 C 4,4 C 2,2 C 98 % 998,0 hPa 0,0 l/m 0 min 0 min 60 W/m 6,4 km/h (2 Bft) 95,74 %
09.03.2023 14:22 4,5 C 4,4 C 2,2 C 98 % 997,8 hPa 0,0 l/m 0 min 2 min 81 W/m 3,2 km/h (1 Bft) 95,74 %
09.03.2023 14:24 4,6 C 4,4 C 2,2 C 98 % 997,8 hPa 0,0 l/m 0 min 2 min 91 W/m 0,0 km/h (0 Bft) 93,62 %
09.03.2023 14:26 4,6 C 4,4 C 2,2 C 98 % 997,8 hPa 0,0 l/m 0 min 0 min 89 W/m 12,9 km/h (3 Bft) 95,65 %
09.03.2023 14:28 4,6 C 4,4 C 2,2 C 98 % 997,7 hPa 0,0 l/m 0 min 0 min 75 W/m 3,2 km/h (1 Bft) 95,74 %
09.03.2023 14:30 4,6 C 4,4 C 2,8 C 98 % 997,7 hPa 0,0 l/m 0 min 0 min 64 W/m 3,2 km/h (1 Bft) 97,87 %
09.03.2023 14:32 4,7 C 4,4 C 2,8 C 98 % 997,6 hPa 0,0 l/m 0 min 0 min 65 W/m 3,2 km/h (1 Bft) 97,87 %
09.03.2023 14:34 4,7 C 4,4 C 2,8 C 98 % 997,6 hPa 0,0 l/m 0 min 2 min 65 W/m 6,4 km/h (2 Bft) 97,87 %
09.03.2023 14:36 4,7 C 4,4 C 2,8 C 98 % 997,6 hPa 0,0 l/m 0 min 2 min 54 W/m 6,4 km/h (2 Bft) 97,87 %
09.03.2023 14:38 4,7 C 4,4 C 2,8 C 98 % 997,6 hPa 0,2 l/m 0 min 2 min 50 W/m 3,2 km/h (1 Bft) 97,83 %
09.03.2023 14:40 4,8 C 4,4 C 2,8 C 98 % 997,6 hPa 0,0 l/m 0 min 2 min 49 W/m 3,2 km/h (1 Bft) 97,87 %
09.03.2023 14:42 4,8 C 4,4 C 2,8 C 98 % 997,6 hPa 0,0 l/m 0 min 0 min 47 W/m 3,2 km/h (1 Bft) 97,87 %
09.03.2023 14:44 4,8 C 5,0 C 2,8 C 98 % 997,7 hPa 0,0 l/m 0 min 2 min 54 W/m 3,2 km/h (1 Bft) 95,74 %
09.03.2023 14:46 4,8 C 5,0 C 2,8 C 98 % 997,6 hPa 0,0 l/m 0 min 2 min 60 W/m 6,4 km/h (2 Bft) 97,87 %
09.03.2023 14:48 4,8 C 5,0 C 2,8 C 98 % 997,5 hPa 0,2 l/m 0 min 2 min 86 W/m 12,9 km/h (3 Bft) 100,00 %
09.03.2023 14:50 4,8 C 5,0 C 2,8 C 98 % 997,5 hPa 0,0 l/m 0 min 2 min 66 W/m 3,2 km/h (1 Bft) 100,00 %
09.03.2023 14:52 4,9 C 5,0 C 2,8 C 98 % 997,7 hPa 0,0 l/m 0 min 2 min 50 W/m 3,2 km/h (1 Bft) 97,87 %
09.03.2023 14:54 5,0 C 5,0 C 2,8 C 98 % 997,6 hPa 0,0 l/m 0 min 2 min 57 W/m 3,2 km/h (1 Bft) 97,87 %
09.03.2023 14:56 5,1 C 5,0 C 2,8 C 98 % 997,8 hPa 0,0 l/m 0 min 2 min 41 W/m 3,2 km/h (1 Bft) 100,00 %
09.03.2023 14:58 5,1 C 5,0 C 2,8 C 98 % 997,8 hPa 0,0 l/m 0 min 2 min 40 W/m 0,0 km/h (0 Bft) 100,00 %
09.03.2023 15:00 5,1 C 5,6 C 2,8 C 98 % 997,7 hPa 0,0 l/m 0 min 2 min 48 W/m 3,2 km/h (1 Bft) 95,74 %
09.03.2023 15:02 5,2 C 5,6 C 2,8 C 98 % 997,8 hPa 0,0 l/m 0 min 0 min 36 W/m 3,2 km/h (1 Bft) 100,00 %
09.03.2023 15:04 5,2 C 5,0 C 2,8 C 98 % 997,9 hPa 0,0 l/m 0 min 0 min 37 W/m 3,2 km/h (1 Bft) 97,87 %
09.03.2023 15:06 5,2 C 5,0 C 2,8 C 98 % 997,7 hPa 0,0 l/m 0 min 2 min 45 W/m 6,4 km/h (2 Bft) 100,00 %
09.03.2023 15:08 5,2 C 5,0 C 2,8 C 98 % 997,8 hPa 0,0 l/m 0 min 2 min 36 W/m 3,2 km/h (1 Bft) 100,00 %
09.03.2023 15:10 5,2 C 5,0 C 2,8 C 98 % 997,8 hPa 0,0 l/m 0 min 2 min 33 W/m 3,2 km/h (1 Bft) 97,87 %
09.03.2023 15:12 5,2 C 5,0 C 2,8 C 98 % 997,7 hPa 0,0 l/m 0 min 2 min 43 W/m 3,2 km/h (1 Bft) 97,87 %
09.03.2023 15:14 5,2 C 5,0 C 2,8 C 98 % 997,6 hPa 0,0 l/m 0 min 0 min 66 W/m 0,0 km/h (0 Bft) 97,87 %
09.03.2023 15:16 5,2 C 5,0 C 2,8 C 98 % 997,6 hPa 0,0 l/m 0 min 0 min 57 W/m 3,2 km/h (1 Bft) 100,00 %
09.03.2023 15:18 5,2 C 5,0 C 2,8 C 98 % 997,5 hPa 0,0 l/m 0 min 0 min 62 W/m 6,4 km/h (2 Bft) 97,87 %
09.03.2023 15:20 5,2 C 5,0 C 2,8 C 98 % 997,4 hPa 0,0 l/m 0 min 0 min 57 W/m 6,4 km/h (2 Bft) 100,00 %
09.03.2023 15:22 5,2 C 5,0 C 2,8 C 98 % 997,4 hPa 0,0 l/m 0 min 0 min 36 W/m 3,2 km/h (1 Bft) 100,00 %
09.03.2023 15:24 5,2 C 5,0 C 2,8 C 98 % 997,5 hPa 0,0 l/m 0 min 0 min 25 W/m 3,2 km/h (1 Bft) 100,00 %
09.03.2023 15:26 5,2 C 5,0 C 2,8 C 98 % 997,4 hPa 0,2 l/m 0 min 2 min 26 W/m 3,2 km/h (1 Bft) 100,00 %
09.03.2023 15:28 5,2 C 5,0 C 2,8 C 98 % 997,4 hPa 0,0 l/m 0 min 0 min 27 W/m 3,2 km/h (1 Bft) 100,00 %
09.03.2023 15:30 5,2 C 5,0 C 2,8 C 98 % 997,5 hPa 0,0 l/m 0 min 2 min 30 W/m 6,4 km/h (2 Bft) 100,00 %
09.03.2023 15:32 5,2 C 5,0 C 2,8 C 98 % 997,5 hPa 0,0 l/m 0 min 2 min 35 W/m 3,2 km/h (1 Bft) 100,00 %
09.03.2023 15:34 5,2 C 5,0 C 2,8 C 98 % 997,5 hPa 0,0 l/m 0 min 2 min 42 W/m 3,2 km/h (1 Bft) 100,00 %
09.03.2023 15:36 5,2 C 5,0 C 2,8 C 98 % 997,6 hPa 0,2 l/m 0 min 2 min 32 W/m 3,2 km/h (1 Bft) 100,00 %
09.03.2023 15:38 5,3 C 5,0 C 2,8 C 98 % 997,5 hPa 0,0 l/m 0 min 2 min 51 W/m 3,2 km/h (1 Bft) 97,87 %
09.03.2023 15:40 5,3 C 5,0 C 2,8 C 98 % 997,5 hPa 0,0 l/m 0 min 2 min 100 W/m 6,4 km/h (2 Bft) 95,74 %
09.03.2023 15:42 5,3 C 5,0 C 2,8 C 98 % 997,5 hPa 0,0 l/m 0 min 0 min 95 W/m 3,2 km/h (1 Bft) 97,87 %
09.03.2023 15:44 5,3 C 5,0 C 2,8 C 98 % 997,4 hPa 0,0 l/m 0 min 0 min 74 W/m 3,2 km/h (1 Bft) 97,87 %
09.03.2023 15:46 5,3 C 5,6 C 3,3 C 98 % 997,4 hPa 0,0 l/m 0 min 0 min 110 W/m 3,2 km/h (1 Bft) 97,87 %
09.03.2023 15:48 5,3 C 5,6 C 3,3 C 98 % 997,3 hPa 0,0 l/m 0 min 2 min 152 W/m 3,2 km/h (1 Bft) 97,83 %
09.03.2023 15:50 5,4 C 5,6 C 3,3 C 98 % 997,3 hPa 0,0 l/m 0 min 0 min 133 W/m 6,4 km/h (2 Bft) 97,87 %
09.03.2023 15:52 5,4 C 5,6 C 3,3 C 98 % 997,2 hPa 0,0 l/m 0 min 0 min 147 W/m 6,4 km/h (2 Bft) 97,87 %
09.03.2023 15:54 5,5 C 6,1 C 3,3 C 98 % 997,0 hPa 0,0 l/m 0 min 0 min 148 W/m 3,2 km/h (1 Bft) 98,00 %
09.03.2023 15:56 5,5 C 6,1 C 3,3 C 98 % 997,0 hPa 0,0 l/m 0 min 0 min 143 W/m 6,4 km/h (2 Bft) 95,65 %
09.03.2023 15:58 5,6 C 6,1 C 3,3 C 98 % 997,0 hPa 0,0 l/m 0 min 0 min 153 W/m 6,4 km/h (2 Bft) 95,74 %
09.03.2023 16:00 5,6 C 6,1 C 3,3 C 98 % 996,9 hPa 0,0 l/m 0 min 0 min 144 W/m 6,4 km/h (2 Bft) 97,87 %
09.03.2023 16:02 5,7 C 6,1 C 3,3 C 99 % 997,0 hPa 0,0 l/m 0 min 0 min 135 W/m 3,2 km/h (1 Bft) 95,74 %
09.03.2023 16:04 5,8 C 6,1 C 3,3 C 99 % 996,9 hPa 0,0 l/m 0 min 0 min 134 W/m 3,2 km/h (1 Bft) 97,56 %
09.03.2023 16:06 5,8 C 6,1 C 3,9 C 99 % 996,7 hPa 0,0 l/m 0 min 0 min 128 W/m 3,2 km/h (1 Bft) 96,23 %
09.03.2023 16:08 5,8 C 6,1 C 3,3 C 99 % 996,7 hPa 0,0 l/m 0 min 0 min 125 W/m 6,4 km/h (2 Bft) 95,12 %
09.03.2023 16:10 5,9 C 6,1 C 3,3 C 99 % 996,7 hPa 0,0 l/m 0 min 0 min 120 W/m 9,7 km/h (2 Bft) 91,49 %
09.03.2023 16:12 5,9 C 6,1 C 3,3 C 99 % 996,6 hPa 0,0 l/m 0 min 0 min 105 W/m 6,4 km/h (2 Bft) 91,49 %
09.03.2023 16:14 5,9 C 6,1 C 3,3 C 99 % 996,4 hPa 0,0 l/m 0 min 0 min 110 W/m 12,9 km/h (3 Bft) 93,62 %
09.03.2023 16:16 5,9 C 6,1 C 3,3 C 99 % 996,4 hPa 0,0 l/m 0 min 0 min 106 W/m 12,9 km/h (3 Bft) 93,48 %
09.03.2023 16:18 5,9 C 6,1 C 3,3 C 98 % 996,3 hPa 0,0 l/m 0 min 0 min 104 W/m 16,1 km/h (3 Bft) 95,74 %
09.03.2023 16:20 5,9 C 6,1 C 3,3 C 98 % 996,2 hPa 0,0 l/m 0 min 0 min 99 W/m 16,1 km/h (3 Bft) 93,62 %
09.03.2023 16:22 5,9 C 6,1 C 3,3 C 98 % 996,2 hPa 0,0 l/m 0 min 0 min 92 W/m 16,1 km/h (3 Bft) 93,62 %
09.03.2023 16:24 5,9 C 6,1 C 3,3 C 98 % 996,1 hPa 0,0 l/m 0 min 0 min 89 W/m 12,9 km/h (3 Bft) 93,62 %
09.03.2023 16:26 6,0 C 6,1 C 3,9 C 98 % 996,2 hPa 0,0 l/m 0 min 0 min 94 W/m 6,4 km/h (2 Bft) 93,62 %
09.03.2023 16:28 6,0 C 6,1 C 3,9 C 99 % 996,1 hPa 0,0 l/m 0 min 0 min 95 W/m 19,3 km/h (3 Bft) 93,48 %
09.03.2023 16:30 6,1 C 6,1 C 3,9 C 99 % 996,1 hPa 0,0 l/m 0 min 0 min 82 W/m 12,9 km/h (3 Bft) 95,74 %
09.03.2023 16:32 6,1 C 6,1 C 3,9 C 99 % 996,1 hPa 0,0 l/m 0 min 0 min 59 W/m 6,4 km/h (2 Bft) 95,74 %
09.03.2023 16:34 6,1 C 6,1 C 3,9 C 99 % 996,1 hPa 0,0 l/m 0 min 0 min 44 W/m 12,9 km/h (3 Bft) 95,74 %
09.03.2023 16:36 6,1 C 6,1 C 3,9 C 99 % 996,1 hPa 0,0 l/m 0 min 0 min 33 W/m 9,7 km/h (2 Bft) 95,74 %
09.03.2023 16:38 6,1 C 5,6 C 3,9 C 99 % 996,1 hPa 0,0 l/m 0 min 0 min 27 W/m 16,1 km/h (3 Bft) 93,62 %
09.03.2023 16:40 6,1 C 5,6 C 3,9 C 99 % 996,1 hPa 0,0 l/m 0 min 0 min 26 W/m 16,1 km/h (3 Bft) 95,74 %
09.03.2023 16:42 6,2 C 5,6 C 3,9 C 99 % 996,0 hPa 0,0 l/m 0 min 0 min 26 W/m 6,4 km/h (2 Bft) 95,65 %
09.03.2023 16:44 6,2 C 6,1 C 3,9 C 99 % 996,0 hPa 0,0 l/m 0 min 0 min 30 W/m 6,4 km/h (2 Bft) 95,74 %
09.03.2023 16:46 6,2 C 6,1 C 3,9 C 99 % 996,0 hPa 0,0 l/m 0 min 0 min 35 W/m 6,4 km/h (2 Bft) 97,87 %
09.03.2023 16:48 6,2 C 6,1 C 3,9 C 99 % 996,0 hPa 0,0 l/m 0 min 0 min 42 W/m 6,4 km/h (2 Bft) 97,87 %
09.03.2023 16:50 6,2 C 6,1 C 3,9 C 99 % 996,0 hPa 0,0 l/m 0 min 0 min 60 W/m 3,2 km/h (1 Bft) 95,74 %
09.03.2023 16:52 6,2 C 6,1 C 3,9 C 99 % 996,0 hPa 0,0 l/m 0 min 0 min 63 W/m 12,9 km/h (3 Bft) 93,62 %
09.03.2023 16:54 6,2 C 6,1 C 3,9 C 99 % 996,0 hPa 0,0 l/m 0 min 0 min 60 W/m 6,4 km/h (2 Bft) 97,87 %
09.03.2023 16:56 6,3 C 6,1 C 3,9 C 99 % 995,9 hPa 0,0 l/m 0 min 0 min 47 W/m 6,4 km/h (2 Bft) 97,83 %
09.03.2023 16:58 6,3 C 6,1 C 3,9 C 99 % 995,9 hPa 0,0 l/m 0 min 0 min 35 W/m 6,4 km/h (2 Bft) 95,74 %
09.03.2023 17:00 6,3 C 6,1 C 3,9 C 99 % 995,9 hPa 0,0 l/m 0 min 0 min 34 W/m 6,4 km/h (2 Bft) 97,87 %
09.03.2023 17:02 6,4 C 6,1 C 3,9 C 99 % 995,9 hPa 0,0 l/m 0 min 0 min 44 W/m 12,9 km/h (3 Bft) 97,87 %
09.03.2023 17:04 6,4 C 6,1 C 3,9 C 99 % 995,8 hPa 0,0 l/m 0 min 0 min 51 W/m 6,4 km/h (2 Bft) 97,87 %
09.03.2023 17:06 6,4 C 6,1 C 3,9 C 99 % 995,7 hPa 0,0 l/m 0 min 0 min 61 W/m 12,9 km/h (3 Bft) 100,00 %
09.03.2023 17:08 6,4 C 6,1 C 3,9 C 99 % 995,7 hPa 0,0 l/m 0 min 0 min 67 W/m 6,4 km/h (2 Bft) 100,00 %
09.03.2023 17:10 6,5 C 6,7 C 3,9 C 99 % 995,7 hPa 0,0 l/m 0 min 0 min 68 W/m 6,4 km/h (2 Bft) 100,00 %
09.03.2023 17:12 6,5 C 6,7 C 3,9 C 99 % 995,7 hPa 0,0 l/m 0 min 0 min 64 W/m 3,2 km/h (1 Bft) 100,00 %
09.03.2023 17:14 6,5 C 6,7 C 3,9 C 99 % 995,7 hPa 0,0 l/m 0 min 0 min 58 W/m 6,4 km/h (2 Bft) 100,00 %
09.03.2023 17:16 6,6 C 6,7 C 4,4 C 99 % 995,7 hPa 0,0 l/m 0 min 0 min 48 W/m 9,7 km/h (2 Bft) 100,00 %
09.03.2023 17:18 6,6 C 6,7 C 4,4 C 99 % 995,7 hPa 0,0 l/m 0 min 0 min 46 W/m 12,9 km/h (3 Bft) 100,00 %
09.03.2023 17:20 6,6 C 6,7 C 4,4 C 99 % 995,7 hPa 0,0 l/m 0 min 0 min 40 W/m 12,9 km/h (3 Bft) 100,00 %
09.03.2023 17:22 6,6 C 6,7 C 4,4 C 99 % 995,6 hPa 0,0 l/m 0 min 0 min 33 W/m 3,2 km/h (1 Bft) 100,00 %
09.03.2023 17:24 6,6 C 6,7 C 4,4 C 99 % 995,7 hPa 0,0 l/m 0 min 0 min 29 W/m 12,9 km/h (3 Bft) 100,00 %
09.03.2023 17:26 6,7 C 6,7 C 4,4 C 99 % 995,6 hPa 0,0 l/m 0 min 0 min 33 W/m 6,4 km/h (2 Bft) 100,00 %
09.03.2023 17:28 6,7 C 6,7 C 4,4 C 99 % 995,6 hPa 0,0 l/m 0 min 0 min 33 W/m 6,4 km/h (2 Bft) 95,74 %
09.03.2023 17:30 6,7 C 6,7 C 4,4 C 99 % 995,6 hPa 0,0 l/m 0 min 0 min 31 W/m 6,4 km/h (2 Bft) 100,00 %
09.03.2023 17:32 6,7 C 6,7 C 4,4 C 99 % 995,6 hPa 0,0 l/m 0 min 0 min 28 W/m 12,9 km/h (3 Bft) 100,00 %
09.03.2023 17:34 6,8 C 6,7 C 4,4 C 99 % 995,7 hPa 0,0 l/m 0 min 0 min 21 W/m 6,4 km/h (2 Bft) 100,00 %
09.03.2023 17:36 6,8 C 6,7 C 4,4 C 99 % 995,7 hPa 0,0 l/m 0 min 0 min 18 W/m 3,2 km/h (1 Bft) 97,87 %
09.03.2023 17:38 6,8 C 6,7 C 4,4 C 99 % 995,6 hPa 0,0 l/m 0 min 0 min 18 W/m 0,0 km/h (0 Bft) 100,00 %
09.03.2023 17:40 6,8 C 6,7 C 4,4 C 99 % 995,6 hPa 0,0 l/m 0 min 0 min 15 W/m 3,2 km/h (1 Bft) 100,00 %
09.03.2023 17:42 6,8 C 6,7 C 4,4 C 99 % 995,6 hPa 0,0 l/m 0 min 0 min 16 W/m 3,2 km/h (1 Bft) 100,00 %
09.03.2023 17:44 6,8 C 6,7 C 4,4 C 99 % 995,5 hPa 0,0 l/m 0 min 0 min 18 W/m 3,2 km/h (1 Bft) 100,00 %
09.03.2023 17:46 6,9 C 6,7 C 4,4 C 99 % 995,5 hPa 0,0 l/m 0 min 0 min 19 W/m 3,2 km/h (1 Bft) 100,00 %
09.03.2023 17:48 6,9 C 6,7 C 4,4 C 99 % 995,5 hPa 0,0 l/m 0 min 0 min 19 W/m 3,2 km/h (1 Bft) 100,00 %
09.03.2023 17:50 6,9 C 6,7 C 4,4 C 99 % 995,4 hPa 0,0 l/m 0 min 0 min 19 W/m 0,0 km/h (0 Bft) 100,00 %
09.03.2023 17:52 6,9 C 6,7 C 4,4 C 99 % 995,4 hPa 0,0 l/m 0 min 0 min 18 W/m 3,2 km/h (1 Bft) 100,00 %
09.03.2023 17:54 6,9 C 6,7 C 4,4 C 99 % 995,4 hPa 0,0 l/m 0 min 0 min 17 W/m 0,0 km/h (0 Bft) 100,00 %
09.03.2023 17:56 6,9 C 6,7 C 4,4 C 99 % 995,3 hPa 0,0 l/m 0 min 0 min 17 W/m 0,0 km/h (0 Bft) 100,00 %
09.03.2023 17:58 6,9 C 6,7 C 4,4 C 99 % 995,3 hPa 0,0 l/m 0 min 0 min 15 W/m 0,0 km/h (0 Bft) 100,00 %
09.03.2023 18:00 6,9 C 6,7 C 4,4 C 99 % 995,3 hPa 0,0 l/m 0 min 0 min 14 W/m 3,2 km/h (1 Bft) 97,83 %
09.03.2023 18:02 7,0 C 6,7 C 4,4 C 99 % 995,3 hPa 0,0 l/m 0 min 0 min 14 W/m 0,0 km/h (0 Bft) 97,87 %
09.03.2023 18:04 7,0 C 6,7 C 4,4 C 99 % 995,2 hPa 0,0 l/m 0 min 0 min 12 W/m 0,0 km/h (0 Bft) 97,87 %
09.03.2023 18:07 7,0 C 6,7 C 4,4 C 99 % 995,1 hPa 0,0 l/m 0 min 0 min 12 W/m 0,0 km/h (0 Bft) 100,00 %
09.03.2023 18:08 7,0 C 6,7 C 4,4 C 99 % 995,1 hPa 0,0 l/m 0 min 0 min 12 W/m 0,0 km/h (0 Bft) 95,65 %
09.03.2023 18:12 7,0 C 6,7 C 4,4 C 99 % 995,2 hPa 0,0 l/m 0 min 0 min 11 W/m 0,0 km/h (0 Bft) 98,28 %
09.03.2023 18:14 7,0 C 6,1 C 4,4 C 99 % 995,2 hPa 0,0 l/m 0 min 0 min 10 W/m 0,0 km/h (0 Bft) 97,87 %
09.03.2023 18:16 7,0 C 6,1 C 4,4 C 99 % 995,2 hPa 0,0 l/m 0 min 0 min 7 W/m 3,2 km/h (1 Bft) 93,62 %
09.03.2023 18:18 7,0 C 6,1 C 4,4 C 99 % 995,2 hPa 0,0 l/m 0 min 0 min 6 W/m 3,2 km/h (1 Bft) 95,74 %
09.03.2023 18:20 7,0 C 6,1 C 4,4 C 99 % 995,1 hPa 0,0 l/m 0 min 0 min 5 W/m 3,2 km/h (1 Bft) 97,83 %
09.03.2023 18:22 6,9 C 6,1 C 3,9 C 99 % 995,2 hPa 0,0 l/m 0 min 0 min 5 W/m 6,4 km/h (2 Bft) 97,87 %
09.03.2023 18:24 6,9 C 6,1 C 3,9 C 99 % 995,1 hPa 0,0 l/m 0 min 0 min 0 W/m 6,4 km/h (2 Bft) 97,87 %
09.03.2023 18:26 6,9 C 6,1 C 4,4 C 99 % 995,1 hPa 0,0 l/m 0 min 0 min 0 W/m 6,4 km/h (2 Bft) 97,87 %
09.03.2023 18:28 6,9 C 6,1 C 3,9 C 99 % 995,1 hPa 0,0 l/m 0 min 0 min 0 W/m 3,2 km/h (1 Bft) 97,87 %
09.03.2023 18:30 6,8 C 6,1 C 3,9 C 99 % 995,0 hPa 0,0 l/m 0 min 0 min 0 W/m 3,2 km/h (1 Bft) 97,87 %
09.03.2023 18:32 6,8 C 6,1 C 3,9 C 99 % 995,0 hPa 0,0 l/m 0 min 0 min 0 W/m 3,2 km/h (1 Bft) 95,74 %
09.03.2023 18:34 6,8 C 6,1 C 3,9 C 99 % 995,0 hPa 0,0 l/m 0 min 0 min 0 W/m 3,2 km/h (1 Bft) 93,48 %
09.03.2023 18:36 6,8 C 6,1 C 3,9 C 99 % 994,9 hPa 0,0 l/m 0 min 0 min 0 W/m 3,2 km/h (1 Bft) 96,00 %
09.03.2023 18:38 6,8 C 6,1 C 3,9 C 99 % 994,9 hPa 0,0 l/m 0 min 0 min 0 W/m 3,2 km/h (1 Bft) 93,62 %
09.03.2023 18:40 6,8 C 6,1 C 3,9 C 99 % 994,9 hPa 0,0 l/m 0 min 0 min 0 W/m 3,2 km/h (1 Bft) 95,74 %
09.03.2023 18:42 6,8 C 6,1 C 3,9 C 99 % 994,8 hPa 0,0 l/m 0 min 0 min 0 W/m 3,2 km/h (1 Bft) 95,74 %
09.03.2023 18:44 6,8 C 6,1 C 3,9 C 99 % 994,8 hPa 0,0 l/m 0 min 0 min 0 W/m 3,2 km/h (1 Bft) 100,00 %
09.03.2023 18:46 6,8 C 6,1 C 3,9 C 99 % 994,7 hPa 0,0 l/m 0 min 0 min 0 W/m 3,2 km/h (1 Bft) 97,87 %
09.03.2023 18:48 6,8 C 6,1 C 3,9 C 99 % 994,7 hPa 0,0 l/m 0 min 0 min 0 W/m 3,2 km/h (1 Bft) 95,74 %
09.03.2023 18:50 6,8 C 6,1 C 3,9 C 99 % 994,7 hPa 0,0 l/m 0 min 0 min 0 W/m 3,2 km/h (1 Bft) 95,74 %
09.03.2023 18:52 6,7 C 5,6 C 3,9 C 99 % 994,7 hPa 0,0 l/m 0 min 0 min 0 W/m 0,0 km/h (0 Bft) 95,74 %
09.03.2023 18:54 6,7 C 5,6 C 3,9 C 99 % 994,7 hPa 0,0 l/m 0 min 0 min 0 W/m 0,0 km/h (0 Bft) 95,74 %
09.03.2023 18:56 6,7 C 5,6 C 3,9 C 99 % 994,8 hPa 0,0 l/m 0 min 0 min 0 W/m 0,0 km/h (0 Bft) 95,74 %
09.03.2023 18:58 6,7 C 5,6 C 3,9 C 99 % 994,8 hPa 0,0 l/m 0 min 0 min 0 W/m 0,0 km/h (0 Bft) 95,65 %
09.03.2023 19:00 6,7 C 5,6 C 3,9 C 99 % 994,8 hPa 0,0 l/m 0 min 0 min 0 W/m 0,0 km/h (0 Bft) 95,74 %
09.03.2023 19:02 6,6 C 5,6 C 3,9 C 99 % 994,7 hPa 0,0 l/m 0 min 0 min 0 W/m 0,0 km/h (0 Bft) 95,74 %
09.03.2023 19:04 6,6 C 5,6 C 3,9 C 99 % 994,7 hPa 0,0 l/m 0 min 0 min 0 W/m 0,0 km/h (0 Bft) 95,74 %
09.03.2023 19:06 6,6 C 5,6 C 3,9 C 99 % 994,7 hPa 0,0 l/m 0 min 0 min 0 W/m 0,0 km/h (0 Bft) 93,22 %
09.03.2023 19:08 6,6 C 5,6 C 3,3 C 99 % 994,6 hPa 0,0 l/m 0 min 0 min 0 W/m 0,0 km/h (0 Bft) 94,29 %
09.03.2023 19:10 6,6 C 5,6 C 3,3 C 99 % 994,6 hPa 0,0 l/m 0 min 0 min 0 W/m 0,0 km/h (0 Bft) 95,74 %
09.03.2023 19:12 6,5 C 5,6 C 3,3 C 99 % 994,6 hPa 0,0 l/m 0 min 0 min 0 W/m 0,0 km/h (0 Bft) 95,65 %
09.03.2023 19:14 6,5 C 5,6 C 3,3 C 99 % 994,6 hPa 0,0 l/m 0 min 0 min 0 W/m 0,0 km/h (0 Bft) 95,74 %
09.03.2023 19:16 6,5 C 5,6 C 3,3 C 99 % 994,6 hPa 0,0 l/m 0 min 0 min 0 W/m 0,0 km/h (0 Bft) 95,74 %
09.03.2023 19:18 6,5 C 5,6 C 3,3 C 99 % 994,6 hPa 0,0 l/m 0 min 0 min 0 W/m 0,0 km/h (0 Bft) 93,62 %
09.03.2023 19:20 6,4 C 5,6 C 3,3 C 99 % 994,6 hPa 0,0 l/m 0 min 0 min 0 W/m 0,0 km/h (0 Bft) 93,62 %
09.03.2023 19:22 6,4 C 5,6 C 3,3 C 99 % 994,6 hPa 0,0 l/m 0 min 0 min 0 W/m 0,0 km/h (0 Bft) 93,62 %
09.03.2023 19:24 6,4 C 5,6 C 3,3 C 99 % 994,6 hPa 0,0 l/m 0 min 0 min 0 W/m 0,0 km/h (0 Bft) 95,65 %
09.03.2023 19:26 6,4 C 5,6 C 3,3 C 99 % 994,6 hPa 0,0 l/m 0 min 0 min 0 W/m 0,0 km/h (0 Bft) 97,87 %
09.03.2023 19:28 6,3 C 5,6 C 3,3 C 99 % 994,5 hPa 0,0 l/m 0 min 0 min 0 W/m 0,0 km/h (0 Bft) 97,87 %
09.03.2023 19:30 6,3 C 5,6 C 3,3 C 98 % 994,5 hPa 0,0 l/m 0 min 0 min 0 W/m 0,0 km/h (0 Bft) 97,87 %
09.03.2023 19:32 6,3 C 5,6 C 3,3 C 98 % 994,5 hPa 0,0 l/m 0 min 0 min 0 W/m 0,0 km/h (0 Bft) 95,74 %
09.03.2023 19:34 6,3 C 5,6 C 3,3 C 98 % 994,5 hPa 0,0 l/m 0 min 0 min 0 W/m 0,0 km/h (0 Bft) 95,74 %
09.03.2023 19:36 6,3 C 5,6 C 3,3 C 98 % 994,4 hPa 0,0 l/m 0 min 0 min 0 W/m 0,0 km/h (0 Bft) 97,87 %
09.03.2023 19:38 6,3 C 5,6 C 3,3 C 98 % 994,3 hPa 0,0 l/m 0 min 0 min 0 W/m 0,0 km/h (0 Bft) 95,65 %
09.03.2023 19:40 6,2 C 5,6 C 3,3 C 98 % 994,3 hPa 0,0 l/m 0 min 0 min 0 W/m 0,0 km/h (0 Bft) 95,74 %
09.03.2023 19:42 6,2 C 5,6 C 3,3 C 98 % 994,2 hPa 0,0 l/m 0 min 0 min 0 W/m 0,0 km/h (0 Bft) 97,87 %
09.03.2023 19:44 6,2 C 5,6 C 3,3 C 98 % 994,2 hPa 0,0 l/m 0 min 0 min 0 W/m 0,0 km/h (0 Bft) 100,00 %
09.03.2023 19:46 6,2 C 5,6 C 3,9 C 98 % 994,1 hPa 0,0 l/m 0 min 0 min 0 W/m 0,0 km/h (0 Bft) 100,00 %
09.03.2023 19:48 6,2 C 6,1 C 3,9 C 99 % 994,1 hPa 0,0 l/m 0 min 0 min 0 W/m 0,0 km/h (0 Bft) 100,00 %
09.03.2023 19:50 6,3 C 6,1 C 3,9 C 99 % 994,1 hPa 0,0 l/m 0 min 0 min 0 W/m 0,0 km/h (0 Bft) 100,00 %
09.03.2023 19:52 6,3 C 6,7 C 3,9 C 99 % 993,9 hPa 0,0 l/m 0 min 0 min 0 W/m 0,0 km/h (0 Bft) 100,00 %
09.03.2023 19:54 6,4 C 6,7 C 4,4 C 99 % 993,9 hPa 0,0 l/m 0 min 0 min 0 W/m 0,0 km/h (0 Bft) 95,74 %
09.03.2023 19:56 6,5 C 6,7 C 4,4 C 99 % 993,9 hPa 0,0 l/m 0 min 0 min 0 W/m 0,0 km/h (0 Bft) 100,00 %
09.03.2023 19:58 6,6 C 7,2 C 4,4 C 99 % 993,8 hPa 0,0 l/m 0 min 0 min 0 W/m 0,0 km/h (0 Bft) 100,00 %
09.03.2023 20:00 6,7 C 7,2 C 4,4 C 99 % 993,8 hPa 0,0 l/m 0 min 0 min 0 W/m 0,0 km/h (0 Bft) 97,87 %
09.03.2023 20:02 6,8 C 7,2 C 5,0 C 99 % 993,8 hPa 0,0 l/m 0 min 0 min 0 W/m 0,0 km/h (0 Bft) 97,87 %
09.03.2023 20:04 6,9 C 7,2 C 5,0 C 99 % 993,8 hPa 0,0 l/m 0 min 0 min 0 W/m 6,4 km/h (2 Bft) 97,87 %
09.03.2023 20:06 7,1 C 7,8 C 5,0 C 99 % 993,7 hPa 0,0 l/m 0 min 0 min 0 W/m 6,4 km/h (2 Bft) 95,74 %
09.03.2023 20:08 7,1 C 7,8 C 5,0 C 99 % 993,7 hPa 0,0 l/m 0 min 0 min 0 W/m 6,4 km/h (2 Bft) 98,11 %
09.03.2023 20:10 7,2 C 7,8 C 5,0 C 99 % 993,7 hPa 0,0 l/m 0 min 0 min 0 W/m 6,4 km/h (2 Bft) 97,14 %
09.03.2023 20:12 7,4 C 7,8 C 5,0 C 99 % 993,7 hPa 0,0 l/m 0 min 2 min 0 W/m 9,7 km/h (2 Bft) 98,31 %
09.03.2023 20:14 7,4 C 7,8 C 5,0 C 99 % 993,7 hPa 0,0 l/m 0 min 0 min 0 W/m 9,7 km/h (2 Bft) 97,83 %
09.03.2023 20:16 7,6 C 7,8 C 5,0 C 99 % 993,6 hPa 0,0 l/m 0 min 2 min 0 W/m 6,4 km/h (2 Bft) 91,67 %
09.03.2023 20:18 7,7 C 7,8 C 5,0 C 99 % 993,6 hPa 0,0 l/m 0 min 2 min 0 W/m 6,4 km/h (2 Bft) 97,83 %
09.03.2023 20:20 7,7 C 7,8 C 5,0 C 99 % 993,6 hPa 0,0 l/m 0 min 2 min 0 W/m 9,7 km/h (2 Bft) 97,87 %
09.03.2023 20:22 7,8 C 7,8 C 5,0 C 99 % 993,5 hPa 0,0 l/m 0 min 2 min 0 W/m 6,4 km/h (2 Bft) 97,87 %
09.03.2023 20:24 7,9 C 7,8 C 5,6 C 99 % 993,5 hPa 0,0 l/m 0 min 2 min 0 W/m 6,4 km/h (2 Bft) 97,87 %
09.03.2023 20:26 8,0 C 7,8 C 5,6 C 99 % 993,5 hPa 0,0 l/m 0 min 2 min 0 W/m 6,4 km/h (2 Bft) 95,74 %
09.03.2023 20:28 8,1 C 7,8 C 5,6 C 99 % 993,5 hPa 0,0 l/m 0 min 2 min 0 W/m 6,4 km/h (2 Bft) 97,92 %
09.03.2023 20:30 8,1 C 7,8 C 5,6 C 99 % 993,4 hPa 0,2 l/m 0 min 2 min 0 W/m 9,7 km/h (2 Bft) 95,65 %
09.03.2023 20:32 8,1 C 7,8 C 5,6 C 99 % 993,4 hPa 0,0 l/m 0 min 2 min 0 W/m 3,2 km/h (1 Bft) 95,74 %
09.03.2023 20:34 8,1 C 7,8 C 5,6 C 99 % 993,4 hPa 0,0 l/m 0 min 2 min 0 W/m 6,4 km/h (2 Bft) 100,00 %
09.03.2023 20:36 8,2 C 7,8 C 5,6 C 99 % 993,3 hPa 0,0 l/m 0 min 2 min 0 W/m 6,4 km/h (2 Bft) 97,87 %
09.03.2023 20:38 8,2 C 7,8 C 5,6 C 99 % 993,3 hPa 0,0 l/m 0 min 2 min 0 W/m 6,4 km/h (2 Bft) 100,00 %
09.03.2023 20:40 8,2 C 8,3 C 5,6 C 99 % 993,3 hPa 0,0 l/m 0 min 2 min 0 W/m 12,9 km/h (3 Bft) 100,00 %
09.03.2023 20:42 8,3 C 8,3 C 5,6 C 99 % 993,2 hPa 0,0 l/m 0 min 2 min 0 W/m 6,4 km/h (2 Bft) 100,00 %
09.03.2023 20:44 8,3 C 8,3 C 5,6 C 99 % 993,1 hPa 0,0 l/m 0 min 2 min 0 W/m 6,4 km/h (2 Bft) 100,00 %
09.03.2023 20:46 8,3 C 8,3 C 5,6 C 99 % 993,1 hPa 0,0 l/m 0 min 2 min 0 W/m 6,4 km/h (2 Bft) 100,00 %
09.03.2023 20:48 8,4 C 8,3 C 5,6 C 99 % 993,0 hPa 0,2 l/m 0 min 2 min 0 W/m 9,7 km/h (2 Bft) 100,00 %
09.03.2023 20:50 8,4 C 8,3 C 5,6 C 99 % 992,9 hPa 0,0 l/m 0 min 2 min 0 W/m 6,4 km/h (2 Bft) 95,74 %
09.03.2023 20:52 8,4 C 8,3 C 5,6 C 99 % 992,9 hPa 0,0 l/m 0 min 2 min 0 W/m 12,9 km/h (3 Bft) 100,00 %
09.03.2023 20:54 8,5 C 8,3 C 5,6 C 99 % 992,9 hPa 0,0 l/m 0 min 2 min 0 W/m 6,4 km/h (2 Bft) 100,00 %
09.03.2023 20:56 8,5 C 8,3 C 5,6 C 99 % 992,9 hPa 0,0 l/m 0 min 2 min 0 W/m 6,4 km/h (2 Bft) 100,00 %
09.03.2023 20:58 8,6 C 8,3 C 5,6 C 99 % 992,8 hPa 0,0 l/m 0 min 2 min 0 W/m 6,4 km/h (2 Bft) 100,00 %
09.03.2023 21:00 8,6 C 8,3 C 5,6 C 99 % 992,8 hPa 0,0 l/m 0 min 2 min 0 W/m 6,4 km/h (2 Bft) 100,00 %
09.03.2023 21:02 8,6 C 8,3 C 5,6 C 99 % 992,8 hPa 0,0 l/m 0 min 2 min 0 W/m 3,2 km/h (1 Bft) 97,87 %
09.03.2023 21:04 8,6 C 8,3 C 5,6 C 99 % 992,7 hPa 0,0 l/m 0 min 2 min 0 W/m 3,2 km/h (1 Bft) 100,00 %
09.03.2023 21:06 8,6 C 8,3 C 5,6 C 99 % 992,7 hPa 0,0 l/m 0 min 2 min 0 W/m 6,4 km/h (2 Bft) 100,00 %
09.03.2023 21:08 8,6 C 8,3 C 5,6 C 99 % 992,6 hPa 0,0 l/m 0 min 0 min 0 W/m 3,2 km/h (1 Bft) 100,00 %
09.03.2023 21:10 8,6 C 8,3 C 5,6 C 99 % 992,6 hPa 0,0 l/m 0 min 0 min 0 W/m 6,4 km/h (2 Bft) 100,00 %
09.03.2023 21:12 8,7 C 8,3 C 5,6 C 99 % 992,6 hPa 0,0 l/m 0 min 0 min 0 W/m 6,4 km/h (2 Bft) 100,00 %
09.03.2023 21:14 8,7 C 8,3 C 5,6 C 99 % 992,4 hPa 0,2 l/m 0 min 2 min 0 W/m 6,4 km/h (2 Bft) 97,87 %
09.03.2023 21:16 8,7 C 8,3 C 5,6 C 99 % 992,4 hPa 0,0 l/m 0 min 0 min 0 W/m 12,9 km/h (3 Bft) 97,87 %
09.03.2023 21:18 8,7 C 8,3 C 5,6 C 99 % 992,5 hPa 0,0 l/m 0 min 0 min 0 W/m 9,7 km/h (2 Bft) 97,87 %
09.03.2023 21:20 8,7 C 8,3 C 5,6 C 99 % 992,4 hPa 0,0 l/m 0 min 0 min 0 W/m 3,2 km/h (1 Bft) 100,00 %
09.03.2023 21:22 8,7 C 8,3 C 5,6 C 99 % 992,3 hPa 0,0 l/m 0 min 2 min 0 W/m 3,2 km/h (1 Bft) 97,87 %
09.03.2023 21:24 8,7 C 8,3 C 5,6 C 99 % 992,3 hPa 0,0 l/m 0 min 2 min 0 W/m 6,4 km/h (2 Bft) 53,33 %
09.03.2023 21:26 8,7 C 8,3 C 5,6 C 99 % 992,3 hPa 0,0 l/m 0 min 0 min 0 W/m 6,4 km/h (2 Bft) 100,00 %
09.03.2023 21:28 8,7 C 8,3 C 5,6 C 99 % 992,2 hPa 0,0 l/m 0 min 2 min 0 W/m 9,7 km/h (2 Bft) 97,87 %
09.03.2023 21:30 8,7 C 8,3 C 5,6 C 99 % 992,2 hPa 0,0 l/m 0 min 2 min 0 W/m 6,4 km/h (2 Bft) 97,87 %
09.03.2023 21:32 8,8 C 8,3 C 6,1 C 99 % 992,2 hPa 0,0 l/m 0 min 2 min 0 W/m 12,9 km/h (3 Bft) 93,62 %
09.03.2023 21:34 8,8 C 8,3 C 6,1 C 99 % 992,1 hPa 0,0 l/m 0 min 2 min 0 W/m 6,4 km/h (2 Bft) 93,62 %
09.03.2023 21:36 8,8 C 8,3 C 5,6 C 99 % 992,1 hPa 0,0 l/m 0 min 2 min 0 W/m 12,9 km/h (3 Bft) 93,62 %
09.03.2023 21:38 8,8 C 8,3 C 6,1 C 99 % 992,1 hPa 0,0 l/m 0 min 2 min 0 W/m 9,7 km/h (2 Bft) 93,62 %
09.03.2023 21:40 8,8 C 8,3 C 6,1 C 99 % 992,0 hPa 0,0 l/m 0 min 0 min 0 W/m 12,9 km/h (3 Bft) 95,65 %
09.03.2023 21:42 8,8 C 8,3 C 6,1 C 99 % 991,9 hPa 0,0 l/m 0 min 0 min 0 W/m 6,4 km/h (2 Bft) 91,49 %
09.03.2023 21:44 8,9 C 8,3 C 6,1 C 99 % 992,0 hPa 0,0 l/m 0 min 2 min 0 W/m 9,7 km/h (2 Bft) 95,74 %
09.03.2023 21:46 8,9 C 8,3 C 6,1 C 99 % 991,9 hPa 0,0 l/m 0 min 0 min 0 W/m 9,7 km/h (2 Bft) 95,74 %
09.03.2023 21:48 8,9 C 8,3 C 6,1 C 99 % 991,9 hPa 0,2 l/m 0 min 0 min 0 W/m 6,4 km/h (2 Bft) 93,62 %
09.03.2023 21:50 8,9 C 8,3 C 6,1 C 99 % 991,9 hPa 0,0 l/m 0 min 0 min 0 W/m 6,4 km/h (2 Bft) 93,62 %
09.03.2023 21:52 8,9 C 8,3 C 6,1 C 99 % 991,8 hPa 0,0 l/m 0 min 0 min 0 W/m 6,4 km/h (2 Bft) 95,74 %
09.03.2023 21:54 8,9 C 8,3 C 6,1 C 99 % 991,8 hPa 0,0 l/m 0 min 0 min 0 W/m 12,9 km/h (3 Bft) 95,65 %
09.03.2023 21:56 8,9 C 8,3 C 6,1 C 99 % 991,8 hPa 0,0 l/m 0 min 0 min 0 W/m 9,7 km/h (2 Bft) 91,49 %
09.03.2023 21:58 8,9 C 8,3 C 6,1 C 99 % 991,7 hPa 0,0 l/m 0 min 2 min 0 W/m 6,4 km/h (2 Bft) 94,29 %
09.03.2023 22:00 8,9 C 8,3 C 6,1 C 99 % 991,7 hPa 0,0 l/m 0 min 0 min 0 W/m 6,4 km/h (2 Bft) 93,75 %
09.03.2023 22:02 8,9 C 8,3 C 6,1 C 99 % 991,7 hPa 0,0 l/m 0 min 0 min 0 W/m 9,7 km/h (2 Bft) 91,49 %
09.03.2023 22:04 8,9 C 8,3 C 6,1 C 99 % 991,7 hPa 0,0 l/m 0 min 0 min 0 W/m 19,3 km/h (3 Bft) 93,62 %
09.03.2023 22:06 8,9 C 8,3 C 6,1 C 99 % 991,6 hPa 0,0 l/m 0 min 2 min 0 W/m 12,9 km/h (3 Bft) 93,10 %
09.03.2023 22:08 8,9 C 8,3 C 6,1 C 99 % 991,6 hPa 0,0 l/m 0 min 2 min 0 W/m 12,9 km/h (3 Bft) 88,57 %
09.03.2023 22:10 8,9 C 8,3 C 6,1 C 99 % 991,6 hPa 0,0 l/m 0 min 2 min 0 W/m 6,4 km/h (2 Bft) 95,74 %
09.03.2023 22:12 8,9 C 8,3 C 6,1 C 99 % 991,5 hPa 0,0 l/m 0 min 2 min 0 W/m 6,4 km/h (2 Bft) 95,74 %
09.03.2023 22:14 8,9 C 8,3 C 6,1 C 99 % 991,5 hPa 0,0 l/m 0 min 2 min 0 W/m 6,4 km/h (2 Bft) 95,74 %
09.03.2023 22:16 8,9 C 8,3 C 6,1 C 99 % 991,4 hPa 0,0 l/m 0 min 2 min 0 W/m 16,1 km/h (3 Bft) 95,74 %
09.03.2023 22:18 8,9 C 8,3 C 6,1 C 99 % 991,4 hPa 0,2 l/m 0 min 2 min 0 W/m 6,4 km/h (2 Bft) 95,74 %
09.03.2023 22:20 8,9 C 8,3 C 6,1 C 99 % 991,3 hPa 0,2 l/m 0 min 2 min 0 W/m 12,9 km/h (3 Bft) 95,74 %
09.03.2023 22:22 8,9 C 8,3 C 6,1 C 99 % 991,2 hPa 0,0 l/m 0 min 2 min 0 W/m 6,4 km/h (2 Bft) 93,48 %
09.03.2023 22:24 8,9 C 8,3 C 6,1 C 99 % 991,2 hPa 0,0 l/m 0 min 2 min 0 W/m 12,9 km/h (3 Bft) 97,87 %
09.03.2023 22:26 8,9 C 8,3 C 6,1 C 99 % 991,2 hPa 0,0 l/m 0 min 2 min 0 W/m 6,4 km/h (2 Bft) 95,74 %
09.03.2023 22:28 8,9 C 8,3 C 6,1 C 99 % 991,1 hPa 0,0 l/m 0 min 2 min 0 W/m 12,9 km/h (3 Bft) 97,87 %
09.03.2023 22:30 8,9 C 8,3 C 6,1 C 99 % 991,1 hPa 0,0 l/m 0 min 2 min 0 W/m 12,9 km/h (3 Bft) 97,87 %
09.03.2023 22:32 8,9 C 8,3 C 6,1 C 99 % 991,0 hPa 0,0 l/m 0 min 2 min 0 W/m 6,4 km/h (2 Bft) 97,87 %
09.03.2023 22:34 8,9 C 8,3 C 6,1 C 99 % 991,0 hPa 0,0 l/m 0 min 2 min 0 W/m 6,4 km/h (2 Bft) 100,00 %
09.03.2023 22:36 8,9 C 8,3 C 6,1 C 99 % 990,9 hPa 0,2 l/m 0 min 2 min 0 W/m 6,4 km/h (2 Bft) 100,00 %
09.03.2023 22:38 8,9 C 8,3 C 6,1 C 99 % 990,9 hPa 0,0 l/m 0 min 2 min 0 W/m 12,9 km/h (3 Bft) 100,00 %
09.03.2023 22:40 9,0 C 8,3 C 6,1 C 99 % 990,9 hPa 0,0 l/m 0 min 2 min 0 W/m 16,1 km/h (3 Bft) 97,87 %
09.03.2023 22:42 9,0 C 8,3 C 6,1 C 99 % 990,9 hPa 0,0 l/m 0 min 2 min 0 W/m 12,9 km/h (3 Bft) 100,00 %
09.03.2023 22:44 9,0 C 8,3 C 6,1 C 99 % 990,9 hPa 0,2 l/m 0 min 2 min 0 W/m 12,9 km/h (3 Bft) 100,00 %
09.03.2023 22:46 9,0 C 8,3 C 6,1 C 99 % 990,8 hPa 0,0 l/m 0 min 2 min 0 W/m 12,9 km/h (3 Bft) 100,00 %
09.03.2023 22:48 9,0 C 8,3 C 6,1 C 99 % 990,8 hPa 0,0 l/m 0 min 2 min 0 W/m 12,9 km/h (3 Bft) 100,00 %
09.03.2023 22:50 9,0 C 8,3 C 6,1 C 99 % 990,7 hPa 0,2 l/m 0 min 2 min 0 W/m 3,2 km/h (1 Bft) 100,00 %
09.03.2023 22:52 9,0 C 8,3 C 6,1 C 99 % 990,7 hPa 0,0 l/m 0 min 2 min 0 W/m 16,1 km/h (3 Bft) 100,00 %
09.03.2023 22:54 9,0 C 8,3 C 6,1 C 99 % 990,6 hPa 0,0 l/m 0 min 2 min 0 W/m 6,4 km/h (2 Bft) 100,00 %
09.03.2023 22:56 9,0 C 8,3 C 6,1 C 99 % 990,6 hPa 0,2 l/m 0 min 2 min 0 W/m 6,4 km/h (2 Bft) 95,74 %
09.03.2023 22:58 9,0 C 8,3 C 6,1 C 99 % 990,5 hPa 0,0 l/m 0 min 2 min 0 W/m 6,4 km/h (2 Bft) 97,87 %
09.03.2023 23:00 8,9 C 8,3 C 6,1 C 99 % 990,5 hPa 0,0 l/m 0 min 2 min 0 W/m 6,4 km/h (2 Bft) 56,52 %
09.03.2023 23:02 8,9 C 8,3 C 6,1 C 99 % 990,5 hPa 0,0 l/m 0 min 2 min 0 W/m 6,4 km/h (2 Bft) 93,48 %
09.03.2023 23:04 8,9 C 8,3 C 6,1 C 99 % 990,3 hPa 0,0 l/m 0 min 2 min 0 W/m 6,4 km/h (2 Bft) 100,00 %
09.03.2023 23:06 8,9 C 7,8 C 6,1 C 99 % 990,3 hPa 0,0 l/m 0 min 2 min 0 W/m 16,1 km/h (3 Bft) 96,92 %
09.03.2023 23:08 8,9 C 7,8 C 6,1 C 99 % 990,2 hPa 0,2 l/m 0 min 2 min 0 W/m 12,9 km/h (3 Bft) 100,00 %
09.03.2023 23:10 8,9 C 7,8 C 6,1 C 99 % 990,2 hPa 0,0 l/m 0 min 2 min 0 W/m 12,9 km/h (3 Bft) 100,00 %
09.03.2023 23:12 8,8 C 7,8 C 6,1 C 99 % 990,1 hPa 0,0 l/m 0 min 2 min 0 W/m 6,4 km/h (2 Bft) 97,87 %
09.03.2023 23:14 8,8 C 7,8 C 6,1 C 99 % 990,1 hPa 0,0 l/m 0 min 2 min 0 W/m 12,9 km/h (3 Bft) 100,00 %
09.03.2023 23:16 8,8 C 7,8 C 6,1 C 99 % 990,1 hPa 0,2 l/m 0 min 2 min 0 W/m 12,9 km/h (3 Bft) 97,87 %
09.03.2023 23:18 8,8 C 7,8 C 6,1 C 99 % 990,0 hPa 0,0 l/m 0 min 2 min 0 W/m 12,9 km/h (3 Bft) 100,00 %
09.03.2023 23:20 8,8 C 7,8 C 6,1 C 99 % 990,0 hPa 0,0 l/m 0 min 2 min 0 W/m 6,4 km/h (2 Bft) 100,00 %
09.03.2023 23:22 8,8 C 7,8 C 6,1 C 99 % 989,9 hPa 0,0 l/m 0 min 2 min 0 W/m 6,4 km/h (2 Bft) 100,00 %
09.03.2023 23:24 8,8 C 7,8 C 6,1 C 99 % 989,8 hPa 0,0 l/m 0 min 2 min 0 W/m 6,4 km/h (2 Bft) 95,74 %
09.03.2023 23:26 8,8 C 7,8 C 6,1 C 99 % 989,7 hPa 0,0 l/m 0 min 0 min 0 W/m 6,4 km/h (2 Bft) 100,00 %
09.03.2023 23:28 8,8 C 7,8 C 6,1 C 99 % 989,6 hPa 0,0 l/m 0 min 0 min 0 W/m 6,4 km/h (2 Bft) 100,00 %
09.03.2023 23:30 8,8 C 7,8 C 6,1 C 99 % 989,6 hPa 0,0 l/m 0 min 0 min 0 W/m 12,9 km/h (3 Bft) 96,43 %
09.03.2023 23:32 8,8 C 8,3 C 6,1 C 99 % 989,6 hPa 0,0 l/m 0 min 0 min 0 W/m 12,9 km/h (3 Bft) 91,49 %
09.03.2023 23:34 8,8 C 8,3 C 6,1 C 99 % 989,5 hPa 0,0 l/m 0 min 0 min 0 W/m 12,9 km/h (3 Bft) 97,83 %
09.03.2023 23:36 8,8 C 8,3 C 6,1 C 99 % 989,5 hPa 0,0 l/m 0 min 0 min 0 W/m 16,1 km/h (3 Bft) 100,00 %
09.03.2023 23:38 8,8 C 8,3 C 6,1 C 99 % 989,5 hPa 0,2 l/m 0 min 0 min 0 W/m 12,9 km/h (3 Bft) 97,87 %
09.03.2023 23:40 8,8 C 8,3 C 6,1 C 99 % 989,4 hPa 0,0 l/m 0 min 0 min 0 W/m 6,4 km/h (2 Bft) 93,62 %
09.03.2023 23:42 8,8 C 8,3 C 6,1 C 99 % 989,3 hPa 0,0 l/m 0 min 2 min 0 W/m 6,4 km/h (2 Bft) 100,00 %
09.03.2023 23:44 8,8 C 8,3 C 6,1 C 99 % 989,3 hPa 0,0 l/m 0 min 2 min 0 W/m 6,4 km/h (2 Bft) 100,00 %
09.03.2023 23:46 8,8 C 8,3 C 6,1 C 99 % 989,2 hPa 0,0 l/m 0 min 2 min 0 W/m 6,4 km/h (2 Bft) 100,00 %
09.03.2023 23:48 8,8 C 8,3 C 6,1 C 99 % 989,2 hPa 0,0 l/m 0 min 2 min 0 W/m 12,9 km/h (3 Bft) 100,00 %
09.03.2023 23:50 8,8 C 8,3 C 6,1 C 99 % 989,1 hPa 0,0 l/m 0 min 2 min 0 W/m 16,1 km/h (3 Bft) 100,00 %
09.03.2023 23:52 8,8 C 8,3 C 6,1 C 99 % 989,1 hPa 0,2 l/m 0 min 2 min 0 W/m 16,1 km/h (3 Bft) 97,92 %
09.03.2023 23:54 8,8 C 8,3 C 6,1 C 99 % 989,1 hPa 0,0 l/m 0 min 2 min 0 W/m 6,4 km/h (2 Bft) 97,87 %
09.03.2023 23:56 8,8 C 8,3 C 6,1 C 99 % 989,0 hPa 0,0 l/m 0 min 2 min 0 W/m 9,7 km/h (2 Bft) 97,87 %
09.03.2023 23:58 8,8 C 8,3 C 6,1 C 99 % 988,9 hPa 0,0 l/m 0 min 2 min 0 W/m 12,9 km/h (3 Bft) 97,87 %
_ Min-Zeit 00:00 05:04 00:02 00:00 23:58 - - - - 00:10 13:52
Minimum _ 1,3 C 0,6 C -1,1 C 98 % 988,9 hPa - - - - 0,0 km/h (0 Bft) 40,00 %
_ Max-Zeit 22:40 20:40 21:32 03:26 12:40 00:10 00:00 00:08 12:02 16:28 00:00
Maximum _ 9,0 C 8,3 C 6,1 C 99 % 998,8 hPa 0,2 l/m 0 min 4 min 239 W/m 19,3 km/h
S-SO (3 Bft)
100,00 %
Durchschnitt _ 4,1 C 4,0 C 1,9 C 99 % 994,5 hPa #5,8 l/m #0 min. #6:20 h 79 W/m 4,2 km/h (1 Bft) 97,00 %
© 2023 W. Hausmann